M I D A S
Marine Information and Data Acquisition System
Tripno 2044 of the Zeeleeuw from 2011-02-21 07:16:07 to 2011-02-21 17:23:27
Back to CruiseResearch ActivitiesStationsMapUnderway DataData graphs

EquipmentUnitsComment
TimeDGPSUTC
LatitudeDGPSDM.mWGS84
LongitudeDGPSDM.mWGS84
TemperatureSBE03/SBE38deg celciusITS90
ConductivitySBE21S/mITS90
SalinitySBE21 Practical Salinity Units
ChlorophylAChelsea fluorimeterg/lCalibrated in Aceton
Missing or incorrect values are displayed as -999
Sea surface data collected by the RV Zeeleeuw from 2011-02-21 07:03:20 to 2011-02-21 18:21:32
                                                                                    Next 1000 lines
Time Latitude Longitude Temperature Conductivity Salinity ChlorophylA
2011-02-21 07:03:30 51°13.663 2°55.96 13.0158 0.01742 0.08761 0.462042
2011-02-21 07:03:35 51°13.663 2°55.959 13.0183 0.01742 0.087611 0.462042
2011-02-21 07:03:40 51°13.663 2°55.959 13.0173 0.01742 0.087611 0.462042
2011-02-21 07:03:45 51°13.664 2°55.959 13.0151 0.01742 0.087613 0.427218
2011-02-21 07:03:50 51°13.663 2°55.959 13.008 0.01742 0.087613 0.496866
2011-02-21 07:03:55 51°13.663 2°55.959 13.0013 0.01742 0.087613 0.496866
2011-02-21 07:03:59 51°13.663 2°55.959 12.9913 0.01742 0.087613 0.496866
2011-02-21 07:04:05 51°13.663 2°55.959 12.9914 0.01742 0.087615 0.462042
2011-02-21 07:04:10 51°13.663 2°55.959 12.9897 0.01742 0.087616 0.427218
2011-02-21 07:04:15 51°13.663 2°55.959 12.9921 0.01742 0.087617 0.462042
2011-02-21 07:04:20 51°13.663 2°55.959 12.9914 0.01742 0.087618 0.462042
2011-02-21 07:04:25 51°13.663 2°55.959 12.9953 0.01742 0.087619 0.462042
2011-02-21 07:04:30 51°13.663 2°55.959 12.9939 0.01742 0.087619 0.462042
2011-02-21 07:04:35 51°13.663 2°55.959 12.9937 0.01742 0.08762 0.462042
2011-02-21 07:04:40 51°13.663 2°55.959 12.9949 0.01742 0.087621 0.462042
2011-02-21 07:04:45 51°13.663 2°55.959 12.9976 0.01742 0.087621 0.496866
2011-02-21 07:04:50 51°13.663 2°55.959 13.0006 0.01742 0.087623 0.462042
2011-02-21 07:04:55 51°13.663 2°55.959 13.0012 0.01742 0.087624 0.462042
2011-02-21 07:05:00 51°13.662 2°55.959 13.0045 0.01742 0.087624 0.462042
2011-02-21 07:05:05 51°13.662 2°55.959 13.0052 0.01742 0.087625 0.427218
2011-02-21 07:05:10 51°13.663 2°55.959 13.0061 0.01742 0.087627 0.462042
2011-02-21 07:05:15 51°13.662 2°55.959 13.0049 0.01742 0.087627 0.462042
2011-02-21 07:05:20 51°13.662 2°55.959 13.006 0.01742 0.087628 0.462042
2011-02-21 07:05:25 51°13.662 2°55.959 13.0051 0.01742 0.087631 0.496866
2011-02-21 07:05:30 51°13.662 2°55.959 13.0071 0.01742 0.087631 0.496866
2011-02-21 07:05:35 51°13.663 2°55.959 13.0095 0.01742 0.087631 0.462042
2011-02-21 07:05:40 51°13.662 2°55.959 13.0115 0.01742 0.087632 0.462042
2011-02-21 07:05:45 51°13.662 2°55.959 13.0187 0.01742 0.087634 0.462042
2011-02-21 07:05:50 51°13.663 2°55.959 13.0188 0.01742 0.087635 0.496866
2011-02-21 07:05:54 51°13.663 2°55.959 13.0235 0.01742 0.087637 0.462042
2011-02-21 07:06:00 51°13.662 2°55.959 13.0237 0.01742 0.087637 0.462042
2011-02-21 07:06:05 51°13.662 2°55.959 13.0155 0.01742 0.087638 0.462042
2011-02-21 07:06:10 51°13.662 2°55.959 13.0218 0.01742 0.087639 0.427218
2011-02-21 07:06:14 51°13.662 2°55.959 13.0219 0.01742 0.087641 0.496866
2011-02-21 07:06:19 51°13.662 2°55.959 13.0239 0.01742 0.087642 0.462042
2011-02-21 07:06:25 51°13.662 2°55.959 13.0223 0.01742 0.087643 0.462042
2011-02-21 07:06:30 51°13.662 2°55.959 13.0233 0.01742 0.087643 0.462042
2011-02-21 07:06:34 51°13.662 2°55.959 13.022 0.01742 0.087644 0.462042
2011-02-21 07:06:40 51°13.662 2°55.959 13.0204 0.01742 0.087645 0.427218
2011-02-21 07:06:45 51°13.662 2°55.959 13.0163 0.01742 0.087647 0.462042
2011-02-21 07:06:50 51°13.662 2°55.959 13.0149 0.01742 0.087649 0.462042
2011-02-21 07:06:54 51°13.662 2°55.959 13.0134 0.01742 0.08765 0.462042
2011-02-21 07:07:00 51°13.662 2°55.96 13.0121 0.01742 0.08765 0.462042
2011-02-21 07:07:05 51°13.662 2°55.96 13.0092 0.01742 0.087653 0.427218
2011-02-21 07:07:10 51°13.662 2°55.96 13.0103 0.01742 0.087654 0.462042
2011-02-21 07:07:15 51°13.662 2°55.96 13.0108 0.01742 0.087656 0.462042
2011-02-21 07:07:20 51°13.662 2°55.96 13.0095 0.01742 0.087657 0.462042
2011-02-21 07:07:25 51°13.662 2°55.96 13.0071 0.01742 0.087657 0.462042
2011-02-21 07:07:30 51°13.662 2°55.96 13.0099 0.01742 0.087659 0.462042
2011-02-21 07:07:35 51°13.662 2°55.96 13.0128 0.01742 0.08766 0.462042
2011-02-21 07:07:40 51°13.662 2°55.96 13.0135 0.01742 0.087662 0.462042
2011-02-21 07:07:45 51°13.662 2°55.961 13.015 0.01742 0.087663 0.462042
2011-02-21 07:07:50 51°13.662 2°55.961 13.0144 0.01742 0.087664 0.462042
2011-02-21 07:07:55 51°13.662 2°55.961 13.0125 0.01742 0.087666 0.462042
2011-02-21 07:08:00 51°13.662 2°55.961 13.0151 0.01742 0.087666 0.462042
2011-02-21 07:08:05 51°13.662 2°55.961 13.0123 0.01742 0.087668 0.462042
2011-02-21 07:08:10 51°13.662 2°55.96 13.0101 0.01742 0.087669 0.462042
2011-02-21 07:08:15 51°13.662 2°55.96 13.0097 0.01742 0.08767 0.462042
2011-02-21 07:08:21 51°13.662 2°55.96 13.0096 0.01742 0.087671 0.462042
2011-02-21 07:08:25 51°13.662 2°55.96 13.0117 0.01742 0.087675 0.462042
2011-02-21 07:08:30 51°13.662 2°55.96 13.0116 0.01742 0.087675 0.462042
2011-02-21 07:08:35 51°13.662 2°55.96 13.0107 0.01742 0.087676 0.462042
2011-02-21 07:08:41 51°13.662 2°55.96 13.0111 0.01742 0.087677 0.462042
2011-02-21 07:08:46 51°13.662 2°55.96 13.012 0.01742 0.08768 0.462042
2011-02-21 07:08:51 51°13.662 2°55.96 13.0139 0.01742 0.08768 0.427218
2011-02-21 07:08:55 51°13.662 2°55.96 13.015 0.01742 0.087682 0.462042
2011-02-21 07:09:00 51°13.663 2°55.96 13.0135 0.01742 0.087682 0.462042
2011-02-21 07:09:06 51°13.662 2°55.96 13.0168 0.01742 0.087684 0.462042
2011-02-21 07:09:11 51°13.662 2°55.961 13.0156 0.01742 0.087685 0.462042
2011-02-21 07:09:15 51°13.662 2°55.961 13.0144 0.01742 0.087687 0.427218
2011-02-21 07:09:20 51°13.662 2°55.961 13.0135 0.01742 0.087687 0.462042
2011-02-21 07:09:26 51°13.662 2°55.961 13.0161 0.01742 0.08769 0.462042
2011-02-21 07:09:31 51°13.662 2°55.961 13.0187 0.01742 0.08769 0.462042
2011-02-21 07:09:35 51°13.662 2°55.961 13.0209 0.01742 0.087691 0.462042
2011-02-21 07:09:40 51°13.663 2°55.96 13.0161 0.01742 0.087694 0.462042
2011-02-21 07:09:45 51°13.662 2°55.96 13.0139 0.01742 0.087695 0.462042
2011-02-21 07:09:51 51°13.662 2°55.961 13.0096 0.017316 0.087199 0.462042
2011-02-21 07:09:55 51°13.662 2°55.96 13.0109 0.01742 0.087698 0.462042
2011-02-21 07:10:00 51°13.662 2°55.96 13.006 0.01742 0.087698 0.462042
2011-02-21 07:10:05 51°13.662 2°55.96 13.0023 0.01742 0.087699 0.462042
2011-02-21 07:10:10 51°13.662 2°55.96 12.9885 0.01742 0.087701 0.427218
2011-02-21 07:10:15 51°13.662 2°55.96 12.9794 0.01742 0.087704 0.462042
2011-02-21 07:10:19 51°13.662 2°55.961 13.0126 0.01742 0.087704 0.462042
2011-02-21 07:10:25 51°13.662 2°55.96 12.9969 0.017316 0.087209 0.462042
2011-02-21 07:10:30 51°13.661 2°55.96 12.9879 0.017316 0.087209 0.462042
2011-02-21 07:10:35 51°13.662 2°55.96 12.9859 0.01742 0.087708 0.427218
2011-02-21 07:10:41 51°13.662 2°55.961 12.9796 0.01742 0.087709 0.462042
2011-02-21 07:10:46 51°13.662 2°55.961 12.9907 0.01742 0.08771 0.496866
2011-02-21 07:10:51 51°13.662 2°55.961 12.995 0.017316 0.087214 0.462042
2011-02-21 07:10:55 51°13.662 2°55.961 12.996 0.017316 0.087214 0.462042
2011-02-21 07:11:00 51°13.662 2°55.96 12.9991 0.017316 0.087216 0.462042
2011-02-21 07:11:06 51°13.662 2°55.961 13.0015 0.017316 0.087217 0.462042
2011-02-21 07:11:10 51°13.662 2°55.961 13.0042 0.01742 0.087717 0.462042
2011-02-21 07:11:15 51°13.662 2°55.96 13.0051 0.017316 0.087221 0.462042
2011-02-21 07:11:20 51°13.662 2°55.96 13.0061 0.01742 0.08772 0.427218
2011-02-21 07:11:26 51°13.662 2°55.96 13.0078 0.017316 0.087222 0.462042
2011-02-21 07:11:31 51°13.662 2°55.96 13.0081 0.017316 0.087222 0.462042
2011-02-21 07:11:35 51°13.662 2°55.96 13.0085 0.017316 0.087224 0.462042
2011-02-21 07:11:40 51°13.662 2°55.96 13.0103 0.01742 0.087724 0.462042
2011-02-21 07:11:45 51°13.662 2°55.96 13.0122 0.017316 0.087227 0.462042
2011-02-21 07:11:51 51°13.662 2°55.961 13.0149 0.01742 0.087727 0.427218
2011-02-21 07:11:55 51°13.662 2°55.961 13.0152 0.01742 0.087728 0.462042
2011-02-21 07:12:00 51°13.662 2°55.961 13.0159 0.01742 0.087728 0.462042
2011-02-21 07:12:05 51°13.662 2°55.96 13.0171 0.01742 0.087729 0.462042
2011-02-21 07:12:11 51°13.662 2°55.96 13.0202 0.01742 0.087731 0.427218
2011-02-21 07:12:15 51°13.661 2°55.96 13.0236 0.01742 0.087732 0.462042
2011-02-21 07:12:21 51°13.661 2°55.96 13.0247 0.017316 0.087237 0.427218
2011-02-21 07:12:25 51°13.661 2°55.96 13.0289 0.017316 0.087238 0.462042
2011-02-21 07:12:30 51°13.661 2°55.96 13.03 0.017316 0.087238 0.462042
2011-02-21 07:12:35 51°13.661 2°55.96 13.0331 0.017316 0.08724 0.427218
2011-02-21 07:12:41 51°13.661 2°55.96 13.0292 0.017316 0.087241 0.496866
2011-02-21 07:12:45 51°13.661 2°55.96 13.0299 0.017316 0.087242 0.462042
2011-02-21 07:12:50 51°13.661 2°55.96 13.0301 0.017316 0.087244 0.462042
2011-02-21 07:12:55 51°13.661 2°55.96 13.0312 0.017316 0.087244 0.462042
2011-02-21 07:13:00 51°13.662 2°55.96 13.0352 0.01742 0.087743 0.462042
2011-02-21 07:13:05 51°13.662 2°55.96 13.0352 0.017316 0.087247 0.496866
2011-02-21 07:13:10 51°13.662 2°55.96 13.0375 0.017316 0.087248 0.496866
2011-02-21 07:13:15 51°13.662 2°55.96 13.0374 0.017316 0.08725 0.462042
2011-02-21 07:13:19 51°13.662 2°55.96 13.0377 0.017316 0.087251 0.462042
2011-02-21 07:13:24 51°13.662 2°55.959 13.0387 0.017316 0.087253 0.427218
2011-02-21 07:13:29 51°13.662 2°55.959 13.0359 0.017316 0.087253 0.427218
2011-02-21 07:13:33 51°13.662 2°55.959 13.0347 0.017316 0.087256 0.462042
2011-02-21 07:13:38 51°13.662 2°55.959 13.0367 0.017316 0.087257 0.496866
2011-02-21 07:13:43 51°13.663 2°55.959 13.0365 0.01742 0.087756 0.462042
2011-02-21 07:13:47 51°13.663 2°55.959 13.0296 0.017316 0.08726 0.427218
2011-02-21 07:13:53 51°13.663 2°55.96 13.0313 0.017316 0.087262 0.462042
2011-02-21 07:13:58 51°13.663 2°55.96 13.0312 0.017316 0.087262 0.462042
2011-02-21 07:14:03 51°13.663 2°55.959 13.0319 0.017316 0.087263 0.462042
2011-02-21 07:14:07 51°13.663 2°55.959 13.0303 0.017316 0.087264 0.496866
2011-02-21 07:14:12 51°13.662 2°55.96 13.0296 0.017316 0.087266 0.496866
2011-02-21 07:14:17 51°13.662 2°55.96 13.0297 0.017316 0.087268 0.462042
2011-02-21 07:14:22 51°13.662 2°55.959 13.0317 0.017316 0.087268 0.462042
2011-02-21 07:14:27 51°13.662 2°55.96 13.0305 0.017316 0.087268 0.427218
2011-02-21 07:14:32 51°13.662 2°55.96 13.0316 0.017316 0.08727 0.462042
2011-02-21 07:14:37 51°13.662 2°55.96 13.0303 0.017316 0.087272 0.462042
2011-02-21 07:14:42 51°13.662 2°55.959 13.029 0.017316 0.087273 0.462042
2011-02-21 07:14:47 51°13.662 2°55.959 13.0281 0.017316 0.087275 0.462042
2011-02-21 07:14:52 51°13.662 2°55.959 13.0218 0.017316 0.087278 0.462042
2011-02-21 07:14:57 51°13.661 2°55.959 13.025 0.017316 0.087278 0.462042
2011-02-21 07:15:02 51°13.661 2°55.96 13.0251 0.017316 0.087278 0.496866
2011-02-21 07:15:07 51°13.662 2°55.96 13.0261 0.017316 0.087281 0.462042
2011-02-21 07:15:12 51°13.662 2°55.96 13.0328 0.017316 0.087282 0.462042
2011-02-21 07:15:18 51°13.661 2°55.96 13.0344 0.017316 0.087283 0.462042
2011-02-21 07:15:23 51°13.661 2°55.96 13.0351 0.017316 0.087286 0.462042
2011-02-21 07:15:29 51°13.661 2°55.959 13.033 0.017316 0.087286 0.462042
2011-02-21 07:15:35 51°13.661 2°55.959 13.0337 0.017316 0.087287 0.462042
2011-02-21 07:15:40 51°13.661 2°55.959 13.0303 0.017316 0.087288 0.496866
2011-02-21 07:15:46 51°13.661 2°55.959 13.0252 0.017316 0.08729 0.462042
2011-02-21 07:15:51 51°13.661 2°55.959 13.0204 0.017316 0.087292 0.462042
2011-02-21 07:15:55 51°13.661 2°55.959 13.0177 0.017316 0.087293 0.496866
2011-02-21 07:16:00 51°13.661 2°55.959 13.0171 0.017316 0.087293 0.496866
2011-02-21 07:16:06 51°13.661 2°55.959 13.0181 0.017316 0.087294 0.462042
2011-02-21 07:16:11 51°13.661 2°55.959 13.0211 0.017316 0.087296 0.427218
2011-02-21 07:16:15 51°13.661 2°55.959 13.0214 0.017316 0.0873 0.462042
2011-02-21 07:16:20 51°13.661 2°55.958 13.0214 0.017316 0.087301 0.462042
2011-02-21 07:16:25 51°13.661 2°55.959 13.0226 0.017316 0.087301 0.462042
2011-02-21 07:16:30 51°13.661 2°55.96 13.0234 0.017316 0.087302 0.496866
2011-02-21 07:16:35 51°13.661 2°55.96 13.0237 0.017316 0.087304 0.427218
2011-02-21 07:16:40 51°13.661 2°55.96 13.0245 0.017316 0.087305 0.462042
2011-02-21 07:16:45 51°13.661 2°55.96 13.0262 0.017316 0.087307 0.427218
2011-02-21 07:16:50 51°13.661 2°55.96 13.0433 0.017316 0.087309 0.496866
2011-02-21 07:16:55 51°13.661 2°55.96 13.0397 0.017316 0.08731 0.462042
2011-02-21 07:17:00 51°13.661 2°55.96 13.0504 0.017316 0.08731 0.462042
2011-02-21 07:17:05 51°13.661 2°55.96 13.0541 0.017316 0.087311 0.462042
2011-02-21 07:17:10 51°13.661 2°55.96 13.0587 0.017316 0.087313 0.462042
2011-02-21 07:17:15 51°13.661 2°55.96 13.0611 0.017316 0.087314 0.462042
2011-02-21 07:17:20 51°13.661 2°55.96 13.0596 0.017316 0.087317 0.496866
2011-02-21 07:17:25 51°13.661 2°55.96 13.0612 0.017316 0.087319 0.462042
2011-02-21 07:17:30 51°13.661 2°55.96 13.0618 0.017316 0.087319 0.462042
2011-02-21 07:17:35 51°13.66 2°55.96 13.0634 0.017316 0.08732 0.462042
2011-02-21 07:17:41 51°13.66 2°55.96 13.0578 0.017316 0.087323 0.462042
2011-02-21 07:17:46 51°13.66 2°55.96 13.0569 0.017316 0.087324 0.462042
2011-02-21 07:17:51 51°13.66 2°55.96 13.0533 0.017316 0.087326 0.462042
2011-02-21 07:17:55 51°13.66 2°55.96 13.028 0.017316 0.087327 0.462042
2011-02-21 07:18:00 51°13.66 2°55.959 12.9259 0.017316 0.087327 0.462042
2011-02-21 07:18:06 51°13.66 2°55.958 12.9528 0.017316 0.087329 0.462042
2011-02-21 07:18:11 51°13.661 2°55.955 12.7885 0.017316 0.08733 0.496866
2011-02-21 07:18:15 51°13.662 2°55.953 12.9353 0.017316 0.087333 0.462042
2011-02-21 07:18:20 51°13.663 2°55.949 13.0208 0.017316 0.087334 0.427218
2011-02-21 07:18:25 51°13.664 2°55.944 12.9658 0.017316 0.087335 0.462042
2011-02-21 07:18:31 51°13.666 2°55.937 12.9571 0.017316 0.087335 0.462042
2011-02-21 07:18:35 51°13.667 2°55.932 12.9657 0.017316 0.087336 0.496866
2011-02-21 07:18:40 51°13.669 2°55.926 12.9818 0.017316 0.087338 0.496866
2011-02-21 07:18:45 51°13.671 2°55.919 13.0259 0.017316 0.087341 0.427218
2011-02-21 07:18:51 51°13.673 2°55.909 13.023 0.017316 0.087341 0.427218
2011-02-21 07:18:55 51°13.674 2°55.903 12.9958 0.017316 0.087345 0.462042
2011-02-21 07:19:00 51°13.676 2°55.894 13.0091 0.017316 0.087345 0.462042
2011-02-21 07:19:05 51°13.678 2°55.886 13.0292 0.017316 0.087346 0.462042
2011-02-21 07:19:10 51°13.679 2°55.878 13.0316 0.017316 0.087348 0.462042
2011-02-21 07:19:15 51°13.681 2°55.869 13.039 0.017316 0.087349 0.462042
2011-02-21 07:19:21 51°13.683 2°55.859 13.05 0.017316 0.08735 0.496866
2011-02-21 07:19:26 51°13.684 2°55.851 13.0455 0.017316 0.087353 0.496866
2011-02-21 07:19:30 51°13.685 2°55.844 13.0437 0.017316 0.087353 0.496866
2011-02-21 07:19:35 51°13.687 2°55.836 13.0367 0.017316 0.087354 0.427218
2011-02-21 07:19:40 51°13.688 2°55.828 13.0342 0.017316 0.087356 0.462042
2011-02-21 07:19:46 51°13.689 2°55.818 13.008 0.017316 0.087358 0.462042
2011-02-21 07:19:51 51°13.691 2°55.809 12.997 0.017316 0.087359 0.496866
2011-02-21 07:19:55 51°13.691 2°55.802 12.9999 0.017316 0.087359 0.496866
2011-02-21 07:20:01 51°13.692 2°55.793 12.9968 0.017316 0.087361 0.462042
2011-02-21 07:20:06 51°13.692 2°55.785 12.9962 0.017316 0.087362 0.427218
2011-02-21 07:20:10 51°13.692 2°55.778 12.9976 0.017316 0.087364 0.462042
2011-02-21 07:20:15 51°13.691 2°55.77 12.9998 0.017316 0.087364 0.462042
2011-02-21 07:20:20 51°13.691 2°55.763 13.0027 0.017316 0.087368 0.462042
2011-02-21 07:20:26 51°13.69 2°55.755 13.0102 0.017316 0.087369 0.427218
2011-02-21 07:20:31 51°13.689 2°55.749 13.0343 0.017316 0.087369 0.427218
2011-02-21 07:20:35 51°13.689 2°55.745 13.0359 0.017316 0.087371 0.462042
2011-02-21 07:20:40 51°13.688 2°55.741 13.0387 0.017316 0.087372 0.462042
2011-02-21 07:20:45 51°13.688 2°55.739 13.0599 0.017316 0.087373 0.462042
2011-02-21 07:20:50 51°13.688 2°55.737 13.0778 0.017316 0.087376 0.462042
2011-02-21 07:20:55 51°13.688 2°55.736 13.0888 0.017316 0.087376 0.462042
2011-02-21 07:20:59 51°13.689 2°55.736 13.0805 0.017316 0.087376 0.462042
2011-02-21 07:21:04 51°13.689 2°55.736 13.0705 0.017316 0.087377 0.462042
2011-02-21 07:21:09 51°13.69 2°55.736 13.054 0.017316 0.087379 0.462042
2011-02-21 07:21:14 51°13.691 2°55.736 13.054 0.017316 0.087381 0.427218
2011-02-21 07:21:19 51°13.692 2°55.737 13.0514 0.017316 0.087383 0.462042
2011-02-21 07:21:23 51°13.693 2°55.737 13.0517 0.017316 0.087385 0.496866
2011-02-21 07:21:28 51°13.695 2°55.737 13.0517 0.017316 0.087385 0.496866
2011-02-21 07:21:33 51°13.696 2°55.738 13.0496 0.017316 0.087387 0.427218
2011-02-21 07:21:38 51°13.698 2°55.738 13.0492 0.017316 0.08739 0.462042
2011-02-21 07:21:43 51°13.7 2°55.739 13.0489 0.017316 0.08739 0.462042
2011-02-21 07:21:47 51°13.701 2°55.739 13.0488 0.017316 0.087393 0.462042
2011-02-21 07:21:53 51°13.704 2°55.74 13.0491 0.017316 0.087393 0.462042
2011-02-21 07:21:59 51°13.707 2°55.74 13.0487 0.017316 0.087394 0.462042
2011-02-21 07:22:04 51°13.709 2°55.741 13.0643 0.017316 0.087395 0.462042
2011-02-21 07:22:10 51°13.712 2°55.741 13.0769 0.017316 0.087397 0.462042
2011-02-21 07:22:15 51°13.715 2°55.741 13.0728 0.017316 0.087398 0.462042
2011-02-21 07:22:20 51°13.719 2°55.74 13.0789 0.017316 0.0874 0.462042
2011-02-21 07:22:26 51°13.723 2°55.739 13.0715 0.017316 0.087401 0.462042
2011-02-21 07:22:31 51°13.727 2°55.738 13.0785 0.017316 0.087401 0.462042
2011-02-21 07:22:35 51°13.73 2°55.736 13.1234 0.017316 0.087403 0.496866
2011-02-21 07:22:40 51°13.735 2°55.734 13.1499 0.017316 0.087405 0.462042
2011-02-21 07:22:45 51°13.739 2°55.73 13.1317 0.017316 0.087406 0.427218
2011-02-21 07:22:50 51°13.743 2°55.725 13.1241 0.017316 0.08741 0.462042
2011-02-21 07:22:55 51°13.748 2°55.72 13.0986 0.017316 0.087411 0.496866
2011-02-21 07:22:59 51°13.752 2°55.715 13.0999 0.017316 0.087411 0.496866
2011-02-21 07:23:04 51°13.757 2°55.707 13.0327 0.017316 0.087413 0.462042
2011-02-21 07:23:09 51°13.763 2°55.699 12.9481 0.017316 0.087415 0.462042
2011-02-21 07:23:14 51°13.769 2°55.692 12.8489 0.017316 0.087417 0.427218
2011-02-21 07:23:19 51°13.775 2°55.683 12.7922 0.017316 0.087418 0.462042
2011-02-21 07:23:24 51°13.782 2°55.675 12.8087 0.017316 0.087419 0.496866
2011-02-21 07:23:29 51°13.789 2°55.667 12.7926 0.017316 0.087419 0.496866
2011-02-21 07:23:34 51°13.797 2°55.659 12.7606 0.017316 0.087421 0.462042
2011-02-21 07:23:39 51°13.805 2°55.651 12.7835 0.017316 0.087423 0.462042
2011-02-21 07:23:43 51°13.812 2°55.645 12.7933 0.017316 0.087424 0.462042
2011-02-21 07:23:48 51°13.821 2°55.637 12.7953 0.017316 0.087426 0.496866
2011-02-21 07:23:54 51°13.832 2°55.627 12.7962 0.017316 0.08743 0.462042
2011-02-21 07:23:59 51°13.842 2°55.62 12.8151 0.017316 0.08743 0.462042
2011-02-21 07:24:03 51°13.85 2°55.613 12.7904 0.017316 0.08743 0.462042
2011-02-21 07:24:08 51°13.861 2°55.604 12.8166 0.017316 0.087433 0.496866
2011-02-21 07:24:13 51°13.872 2°55.596 12.8131 0.017316 0.087434 0.496866
2011-02-21 07:24:18 51°13.883 2°55.588 12.8025 0.017316 0.087436 0.462042
2011-02-21 07:24:23 51°13.895 2°55.579 12.7766 0.017316 0.087438 0.462042
2011-02-21 07:24:28 51°13.906 2°55.571 12.8056 0.017316 0.087438 0.462042
2011-02-21 07:24:34 51°13.921 2°55.56 12.7666 0.017316 0.087439 0.496866
2011-02-21 07:24:39 51°13.932 2°55.551 12.7901 0.017316 0.087441 0.462042
2011-02-21 07:24:45 51°13.947 2°55.54 12.8053 0.017316 0.087443 0.462042
2011-02-21 07:24:50 51°13.959 2°55.531 12.8286 0.017316 0.087445 0.496866
2011-02-21 07:24:55 51°13.97 2°55.522 12.8265 0.017316 0.087446 0.462042
2011-02-21 07:25:00 51°13.983 2°55.513 12.8302 0.017316 0.087446 0.462042
2011-02-21 07:25:06 51°13.998 2°55.502 12.7331 0.017316 0.087449 0.496866
2011-02-21 07:25:10 51°14.008 2°55.494 12.745 0.017316 0.087451 0.462042
2011-02-21 07:25:15 51°14.021 2°55.486 12.806 0.017316 0.087452 0.462042
2011-02-21 07:25:19 51°14.031 2°55.48 12.8192 0.017316 0.087454 0.496866
2011-02-21 07:25:25 51°14.047 2°55.47 12.8272 0.017316 0.087454 0.496866
2011-02-21 07:25:30 51°14.06 2°55.461 12.8327 0.017316 0.087455 0.462042
2011-02-21 07:25:35 51°14.073 2°55.452 12.8583 0.017316 0.087457 0.462042
2011-02-21 07:25:40 51°14.087 2°55.444 12.87 0.017316 0.087459 0.462042
2011-02-21 07:25:45 51°14.1 2°55.433 12.8341 0.017316 0.087461 0.462042
2011-02-21 07:25:50 51°14.114 2°55.424 12.797 0.017316 0.087462 0.462042
2011-02-21 07:25:55 51°14.127 2°55.414 12.9405 0.017316 0.087465 0.462042
2011-02-21 07:26:00 51°14.14 2°55.403 12.954 0.017316 0.087465 0.462042
2011-02-21 07:26:06 51°14.157 2°55.391 12.9227 0.017316 0.087465 0.462042
2011-02-21 07:26:10 51°14.167 2°55.382 12.9341 0.017316 0.087469 0.462042
2011-02-21 07:26:15 51°14.181 2°55.371 12.9359 0.017316 0.08747 0.462042
2011-02-21 07:26:21 51°14.197 2°55.357 12.9543 0.017316 0.087473 0.462042
2011-02-21 07:26:25 51°14.208 2°55.347 12.8788 0.017316 0.087474 0.496866
2011-02-21 07:26:30 51°14.222 2°55.335 12.8534 0.017316 0.087474 0.496866
2011-02-21 07:26:35 51°14.235 2°55.322 12.9962 0.017316 0.087477 0.427218
2011-02-21 07:26:41 51°14.251 2°55.306 12.9345 0.017316 0.087477 0.462042
2011-02-21 07:26:46 51°14.264 2°55.293 12.8264 0.017316 0.08748 0.462042
2011-02-21 07:26:51 51°14.278 2°55.279 12.8441 0.017316 0.087481 0.462042
2011-02-21 07:26:55 51°14.288 2°55.268 12.7762 0.017316 0.087483 0.496866
2011-02-21 07:27:00 51°14.302 2°55.254 12.8816 0.017316 0.087483 0.496866
2011-02-21 07:27:05 51°14.316 2°55.239 12.6548 0.017316 0.087485 0.496866
2011-02-21 07:27:11 51°14.333 2°55.223 12.8456 0.017316 0.087486 0.462042
2011-02-21 07:27:15 51°14.344 2°55.211 12.7539 0.017316 0.08749 0.427218
2011-02-21 07:27:20 51°14.358 2°55.196 12.8625 0.017316 0.08749 0.462042
2011-02-21 07:27:25 51°14.372 2°55.182 12.7855 0.017316 0.087491 0.462042
2011-02-21 07:27:30 51°14.387 2°55.168 12.6966 0.017316 0.087491 0.462042
2011-02-21 07:27:35 51°14.401 2°55.153 12.7975 0.017316 0.087495 0.427218
2011-02-21 07:27:39 51°14.412 2°55.141 12.8084 0.017316 0.087496 0.462042
2011-02-21 07:27:44 51°14.427 2°55.126 12.8643 0.017316 0.087498 0.462042
2011-02-21 07:27:49 51°14.442 2°55.111 12.6273 0.017316 0.0875 0.462042
2011-02-21 07:27:54 51°14.455 2°55.094 12.7764 0.017316 0.087501 0.462042
2011-02-21 07:27:59 51°14.469 2°55.077 12.5656 0.017316 0.087501 0.462042
2011-02-21 07:28:03 51°14.481 2°55.064 12.6565 0.017316 0.087503 0.462042
2011-02-21 07:28:07 51°14.492 2°55.05 12.633 0.017316 0.087504 0.462042
2011-02-21 07:28:13 51°14.509 2°55.031 12.7068 0.017316 0.087508 0.427218
2011-02-21 07:28:18 51°14.524 2°55.014 12.6007 0.017316 0.08751 0.496866
2011-02-21 07:28:22 51°14.535 2°55 12.746 0.017316 0.087512 0.462042
2011-02-21 07:28:27 51°14.549 2°54.982 12.6177 0.017316 0.087512 0.462042
2011-02-21 07:28:31 51°14.56 2°54.966 12.6141 0.017316 0.087512 0.462042
2011-02-21 07:28:37 51°14.576 2°54.942 12.6055 0.017316 0.087514 0.462042
2011-02-21 07:28:42 51°14.59 2°54.922 12.6311 0.017316 0.087517 0.462042
2011-02-21 07:28:47 51°14.604 2°54.902 12.5479 0.017316 0.087518 0.462042
2011-02-21 07:28:52 51°14.618 2°54.882 12.4912 0.017316 0.08752 0.462042
2011-02-21 07:28:57 51°14.631 2°54.862 12.4904 0.017316 0.08752 0.462042
2011-02-21 07:29:02 51°14.646 2°54.843 12.5778 0.017316 0.087521 0.462042
2011-02-21 07:29:07 51°14.66 2°54.824 12.6069 0.017316 0.087524 0.496866
2011-02-21 07:29:12 51°14.674 2°54.805 12.6169 0.017316 0.087525 0.496866
2011-02-21 07:29:17 51°14.688 2°54.786 12.5345 0.017316 0.087528 0.462042
2011-02-21 07:29:22 51°14.703 2°54.767 12.6101 0.017316 0.087529 0.462042
2011-02-21 07:29:27 51°14.717 2°54.748 12.4863 0.017316 0.087529 0.462042
2011-02-21 07:29:32 51°14.731 2°54.728 12.5192 0.017316 0.087532 0.496866
2011-02-21 07:29:37 51°14.745 2°54.708 12.5517 0.017316 0.087534 0.462042
2011-02-21 07:29:42 51°14.759 2°54.69 12.4424 0.017316 0.087536 0.462042
2011-02-21 07:29:47 51°14.774 2°54.673 12.4793 0.017316 0.087538 0.496866
2011-02-21 07:29:52 51°14.789 2°54.656 12.5206 0.017316 0.087539 0.462042
2011-02-21 07:29:57 51°14.804 2°54.64 12.4498 0.017316 0.087539 0.462042
2011-02-21 07:30:02 51°14.82 2°54.625 12.5225 0.017316 0.08754 0.496866
2011-02-21 07:30:07 51°14.835 2°54.611 12.5138 0.017316 0.087541 0.496866
2011-02-21 07:30:12 51°14.852 2°54.597 12.4752 0.017316 0.087543 0.462042
2011-02-21 07:30:17 51°14.868 2°54.584 12.5452 0.017316 0.087545 0.462042
2011-02-21 07:30:22 51°14.885 2°54.572 12.4382 0.017316 0.087548 0.462042
2011-02-21 07:30:27 51°14.901 2°54.56 12.5325 0.017316 0.087548 0.462042
2011-02-21 07:30:32 51°14.917 2°54.549 12.5067 0.017316 0.087549 0.496866
2011-02-21 07:30:37 51°14.933 2°54.537 12.5018 0.017316 0.087551 0.462042
2011-02-21 07:30:42 51°14.949 2°54.525 12.532 0.017316 0.087553 0.462042
2011-02-21 07:30:47 51°14.966 2°54.513 12.5465 0.017316 0.087555 0.496866
2011-02-21 07:30:52 51°14.982 2°54.501 12.4765 0.017316 0.087555 0.496866
2011-02-21 07:30:57 51°14.998 2°54.489 12.4564 0.017316 0.087557 0.462042
2011-02-21 07:31:02 51°15.015 2°54.476 12.4984 0.017316 0.087559 0.462042
2011-02-21 07:31:07 51°15.03 2°54.463 12.5014 0.017316 0.087561 0.462042
2011-02-21 07:31:12 51°15.046 2°54.45 12.5196 0.017316 0.087563 0.462042
2011-02-21 07:31:17 51°15.061 2°54.436 12.384 0.017316 0.087565 0.462042
2011-02-21 07:31:22 51°15.077 2°54.423 12.493 0.017316 0.087568 0.496866
2011-02-21 07:31:27 51°15.093 2°54.41 12.4179 0.017316 0.087568 0.496866
2011-02-21 07:31:32 51°15.109 2°54.398 12.3899 0.017316 0.087569 0.427218
2011-02-21 07:31:37 51°15.125 2°54.387 12.3877 0.017316 0.087572 0.462042
2011-02-21 07:31:42 51°15.141 2°54.379 12.4176 0.017316 0.087573 0.496866
2011-02-21 07:31:47 51°15.158 2°54.371 12.419 0.017316 0.087575 0.496866
2011-02-21 07:31:52 51°15.174 2°54.365 12.4536 0.017316 0.087575 0.462042
2011-02-21 07:31:57 51°15.191 2°54.36 12.472 0.017316 0.087575 0.462042
2011-02-21 07:32:02 51°15.208 2°54.356 12.4699 0.017316 0.087577 0.462042
2011-02-21 07:32:07 51°15.225 2°54.351 12.4117 0.017316 0.087578 0.496866
2011-02-21 07:32:12 51°15.242 2°54.348 12.4565 0.017316 0.087581 0.496866
2011-02-21 07:32:17 51°15.258 2°54.345 12.4165 0.017316 0.087582 0.462042
2011-02-21 07:32:22 51°15.275 2°54.343 12.3874 0.017316 0.087582 0.462042
2011-02-21 07:32:27 51°15.292 2°54.34 12.3731 0.017316 0.087585 0.462042
2011-02-21 07:32:32 51°15.309 2°54.338 12.4396 0.017212 0.087087 0.462042
2011-02-21 07:32:37 51°15.326 2°54.336 12.4546 0.017316 0.08759 0.462042
2011-02-21 07:32:42 51°15.342 2°54.334 12.4501 0.017316 0.08759 0.496866
2011-02-21 07:32:47 51°15.359 2°54.333 12.3993 0.017316 0.087593 0.462042
2011-02-21 07:32:52 51°15.376 2°54.331 12.3583 0.017316 0.087595 0.496866
2011-02-21 07:32:57 51°15.393 2°54.328 12.4435 0.017316 0.087595 0.496866
2011-02-21 07:33:02 51°15.41 2°54.325 12.4548 0.017316 0.087597 0.496866
2011-02-21 07:33:07 51°15.427 2°54.323 12.4509 0.017316 0.087599 0.462042
2011-02-21 07:33:12 51°15.445 2°54.318 12.4195 0.017316 0.087602 0.462042
2011-02-21 07:33:17 51°15.462 2°54.313 12.4572 0.017316 0.087605 0.462042
2011-02-21 07:33:22 51°15.479 2°54.307 12.3994 0.017212 0.087108 0.496866
2011-02-21 07:33:27 51°15.496 2°54.3 12.43 0.017212 0.087108 0.496866
2011-02-21 07:33:31 51°15.51 2°54.294 12.3561 0.017212 0.087112 0.462042
2011-02-21 07:33:37 51°15.53 2°54.285 12.4009 0.017316 0.087614 0.496866
2011-02-21 07:33:42 51°15.547 2°54.278 12.3969 0.017316 0.087617 0.462042
2011-02-21 07:33:47 51°15.564 2°54.27 12.3922 0.017212 0.087118 0.462042
2011-02-21 07:33:52 51°15.582 2°54.264 12.3755 0.017316 0.087623 0.496866
2011-02-21 07:33:57 51°15.599 2°54.258 12.3915 0.017316 0.087623 0.496866
2011-02-21 07:34:02 51°15.617 2°54.253 12.4088 0.017316 0.087625 0.496866
2011-02-21 07:34:07 51°15.634 2°54.249 12.3681 0.017212 0.087127 0.462042
2011-02-21 07:34:12 51°15.652 2°54.245 12.4265 0.017316 0.087629 0.496866
2011-02-21 07:34:17 51°15.669 2°54.243 12.4066 0.017316 0.087632 0.496866
2011-02-21 07:34:22 51°15.687 2°54.24 12.4191 0.017316 0.087635 0.462042
2011-02-21 07:34:27 51°15.705 2°54.237 12.4385 0.017316 0.087635 0.462042
2011-02-21 07:34:32 51°15.722 2°54.234 12.3974 0.017212 0.087139 0.427218
2011-02-21 07:34:37 51°15.739 2°54.231 12.384 0.017316 0.087643 0.462042
2011-02-21 07:34:42 51°15.757 2°54.228 12.4302 0.017212 0.087146 0.462042
2011-02-21 07:34:47 51°15.775 2°54.224 12.4119 0.017212 0.087148 0.496866
2011-02-21 07:34:52 51°15.792 2°54.22 12.4366 0.017212 0.087153 0.462042
2011-02-21 07:34:57 51°15.81 2°54.215 12.4083 0.017212 0.087153 0.462042
2011-02-21 07:35:02 51°15.827 2°54.21 12.4215 0.017316 0.087658 0.496866
2011-02-21 07:35:07 51°15.845 2°54.205 12.4124 0.017316 0.087661 0.462042
2011-02-21 07:35:12 51°15.863 2°54.2 12.415 0.017316 0.087664 0.496866
2011-02-21 07:35:17 51°15.88 2°54.195 12.4105 0.017316 0.087668 0.462042
2011-02-21 07:35:22 51°15.898 2°54.19 12.3817 0.017316 0.087671 0.496866
2011-02-21 07:35:27 51°15.915 2°54.185 12.4231 0.017316 0.087671 0.496866
2011-02-21 07:35:32 51°15.933 2°54.181 12.3786 0.017212 0.087174 0.462042
2011-02-21 07:35:37 51°15.951 2°54.178 12.4203 0.017212 0.087177 0.462042
2011-02-21 07:35:42 51°15.968 2°54.174 12.3864 0.017316 0.087682 0.462042
2011-02-21 07:35:47 51°15.986 2°54.171 12.4211 0.017212 0.087185 0.462042
2011-02-21 07:35:52 51°16.004 2°54.169 12.4279 0.017212 0.087187 0.462042
2011-02-21 07:35:57 51°16.021 2°54.165 12.4245 0.017212 0.087187 0.462042
2011-02-21 07:36:02 51°16.038 2°54.162 12.4303 0.017212 0.087193 0.462042
2011-02-21 07:36:07 51°16.056 2°54.159 12.4334 0.017316 0.087696 0.462042
2011-02-21 07:36:12 51°16.074 2°54.155 12.3989 0.017212 0.0872 0.496866
2011-02-21 07:36:17 51°16.092 2°54.151 12.4414 0.017316 0.087705 0.462042
2011-02-21 07:36:22 51°16.109 2°54.147 12.3925 0.017316 0.087705 0.462042
2011-02-21 07:36:27 51°16.127 2°54.143 12.3791 0.017316 0.087709 0.462042
2011-02-21 07:36:32 51°16.144 2°54.139 12.3841 0.017316 0.087713 0.462042
2011-02-21 07:36:37 51°16.162 2°54.135 12.3994 0.017212 0.087215 0.462042
2011-02-21 07:36:42 51°16.179 2°54.132 12.4045 0.017212 0.087219 0.462042
2011-02-21 07:36:47 51°16.197 2°54.129 12.3714 0.017316 0.087724 0.462042
2011-02-21 07:36:52 51°16.215 2°54.126 12.3561 0.017316 0.087728 0.496866
2011-02-21 07:36:57 51°16.231 2°54.123 12.3044 0.017316 0.087728 0.496866
2011-02-21 07:37:02 51°16.247 2°54.123 12.3192 0.017212 0.087232 0.462042
2011-02-21 07:37:07 51°16.26 2°54.125 12.3362 0.017212 0.087236 0.427218
2011-02-21 07:37:12 51°16.272 2°54.131 12.3983 0.017212 0.087239 0.427218
2011-02-21 07:37:17 51°16.282 2°54.139 12.3743 0.017212 0.087241 0.462042
2011-02-21 07:37:22 51°16.29 2°54.147 12.3815 0.017212 0.087245 0.496866
2011-02-21 07:37:27 51°16.297 2°54.156 12.3793 0.017212 0.087245 0.496866
2011-02-21 07:37:32 51°16.302 2°54.165 12.4154 0.017212 0.087251 0.462042
2011-02-21 07:37:37 51°16.306 2°54.174 12.4109 0.017212 0.087253 0.496866
2011-02-21 07:37:42 51°16.309 2°54.184 12.3949 0.017212 0.087257 0.462042
2011-02-21 07:37:47 51°16.311 2°54.193 12.4103 0.017212 0.087262 0.462042
2011-02-21 07:37:52 51°16.312 2°54.202 12.4358 0.017212 0.087262 0.462042
2011-02-21 07:37:57 51°16.313 2°54.21 12.4331 0.017212 0.087265 0.462042
2011-02-21 07:38:02 51°16.312 2°54.218 12.4607 0.017212 0.08727 0.462042
2011-02-21 07:38:07 51°16.311 2°54.225 12.4316 0.017212 0.087273 0.427218
2011-02-21 07:38:12 51°16.31 2°54.232 12.4536 0.017212 0.087277 0.462042
2011-02-21 07:38:17 51°16.307 2°54.238 12.4234 0.017212 0.087281 0.496866
2011-02-21 07:38:22 51°16.305 2°54.244 12.4594 0.017212 0.087286 0.462042
2011-02-21 07:38:27 51°16.302 2°54.249 12.4641 0.017212 0.087286 0.462042
2011-02-21 07:38:32 51°16.299 2°54.253 12.477 0.017212 0.087292 0.427218
2011-02-21 07:38:37 51°16.296 2°54.257 12.4152 0.017212 0.087298 0.496866
2011-02-21 07:38:42 51°16.292 2°54.26 12.4428 0.017212 0.087301 0.462042
2011-02-21 07:38:47 51°16.289 2°54.262 12.4803 0.017212 0.087307 0.462042
2011-02-21 07:38:52 51°16.287 2°54.264 12.4588 0.017212 0.08731 0.496866
2011-02-21 07:38:57 51°16.284 2°54.265 12.4431 0.017212 0.08731 0.496866
2011-02-21 07:39:02 51°16.282 2°54.265 12.458 0.017212 0.087316 0.462042
2011-02-21 07:39:07 51°16.279 2°54.265 12.454 0.017212 0.08732 0.496866
2011-02-21 07:39:12 51°16.277 2°54.264 12.4543 0.017212 0.087326 0.462042
2011-02-21 07:39:17 51°16.276 2°54.263 12.4561 0.017212 0.08733 0.427218
2011-02-21 07:39:22 51°16.274 2°54.26 12.4625 0.017212 0.087334 0.496866
2011-02-21 07:39:27 51°16.273 2°54.258 12.4653 0.017212 0.087334 0.496866
2011-02-21 07:39:32 51°16.272 2°54.256 12.4658 0.017212 0.087338 0.462042
2011-02-21 07:39:37 51°16.272 2°54.253 12.4793 0.017212 0.087342 0.427218
2011-02-21 07:39:42 51°16.271 2°54.25 12.4727 0.017212 0.087346 0.496866
2011-02-21 07:39:47 51°16.27 2°54.248 12.4667 0.017212 0.087349 0.462042
2011-02-21 07:39:52 51°16.269 2°54.245 12.4606 0.017212 0.087349 0.462042
2011-02-21 07:39:57 51°16.268 2°54.242 12.4849 0.017212 0.087354 0.462042
2011-02-21 07:40:02 51°16.267 2°54.239 12.4701 0.017212 0.087359 0.496866
2011-02-21 07:40:07 51°16.266 2°54.236 12.4606 0.017212 0.087363 0.462042
2011-02-21 07:40:12 51°16.265 2°54.233 12.4541 0.017212 0.087367 0.496866
2011-02-21 07:40:17 51°16.265 2°54.23 12.4509 0.017212 0.08737 0.462042
2011-02-21 07:40:22 51°16.264 2°54.226 12.4586 0.017212 0.087374 0.462042
2011-02-21 07:40:27 51°16.263 2°54.223 12.4574 0.017212 0.087374 0.462042
2011-02-21 07:40:32 51°16.262 2°54.22 12.455 0.017212 0.08738 0.496866
2011-02-21 07:40:37 51°16.261 2°54.217 12.4545 0.017212 0.087383 0.462042
2011-02-21 07:40:42 51°16.26 2°54.214 12.4807 0.017212 0.087387 0.462042
2011-02-21 07:40:47 51°16.259 2°54.21 12.4683 0.017212 0.08739 0.462042
2011-02-21 07:40:52 51°16.259 2°54.206 12.4825 0.017212 0.087396 0.496866
2011-02-21 07:40:57 51°16.258 2°54.203 12.4646 0.017212 0.087396 0.496866
2011-02-21 07:41:02 51°16.257 2°54.201 12.4623 0.017212 0.087399 0.462042
2011-02-21 07:41:07 51°16.256 2°54.197 12.4697 0.017212 0.087404 0.462042
2011-02-21 07:41:12 51°16.255 2°54.194 12.485 0.017212 0.087408 0.462042
2011-02-21 07:41:17 51°16.254 2°54.191 12.4731 0.017212 0.087414 0.462042
2011-02-21 07:41:22 51°16.253 2°54.188 12.482 0.017212 0.087419 0.496866
2011-02-21 07:41:27 51°16.252 2°54.184 12.4472 0.017212 0.087419 0.496866
2011-02-21 07:41:32 51°16.251 2°54.181 12.4618 0.017212 0.087423 0.462042
2011-02-21 07:41:37 51°16.25 2°54.178 12.484 0.017212 0.087426 0.462042
2011-02-21 07:41:42 51°16.249 2°54.174 12.4898 0.017212 0.08743 0.462042
2011-02-21 07:41:47 51°16.248 2°54.171 12.491 0.017212 0.087435 0.462042
2011-02-21 07:41:52 51°16.247 2°54.167 12.4841 0.017212 0.087439 0.496866
2011-02-21 07:41:57 51°16.246 2°54.163 12.4644 0.017212 0.087439 0.496866
2011-02-21 07:42:02 51°16.245 2°54.16 12.4696 0.017212 0.087443 0.462042
2011-02-21 07:42:07 51°16.245 2°54.156 12.4735 0.017212 0.087448 0.462042
2011-02-21 07:42:12 51°16.244 2°54.153 12.4854 0.017212 0.087453 0.496866
2011-02-21 07:42:17 51°16.243 2°54.15 12.4793 0.017212 0.087457 0.462042
2011-02-21 07:42:22 51°16.242 2°54.146 12.4922 0.017212 0.087463 0.427218
2011-02-21 07:42:27 51°16.241 2°54.143 12.4805 0.017212 0.087463 0.427218
2011-02-21 07:42:32 51°16.24 2°54.139 12.4945 0.017212 0.087467 0.462042
2011-02-21 07:42:37 51°16.239 2°54.136 12.4835 0.017212 0.087472 0.462042
2011-02-21 07:42:42 51°16.238 2°54.132 12.4891 0.017212 0.087477 0.496866
2011-02-21 07:42:47 51°16.238 2°54.128 12.4954 0.017212 0.087483 0.496866
2011-02-21 07:42:52 51°16.237 2°54.125 12.4716 0.017212 0.087483 0.496866
2011-02-21 07:42:57 51°16.236 2°54.121 12.4948 0.017212 0.087488 0.462042
2011-02-21 07:43:02 51°16.235 2°54.118 12.4968 0.017212 0.087493 0.462042
2011-02-21 07:43:07 51°16.234 2°54.114 12.4998 0.017212 0.087499 0.462042
2011-02-21 07:43:12 51°16.233 2°54.111 12.5019 0.017212 0.087505 0.462042
2011-02-21 07:43:17 51°16.232 2°54.107 12.4817 0.017212 0.087509 0.462042
2011-02-21 07:43:22 51°16.232 2°54.104 12.4671 0.017212 0.087516 0.496866
2011-02-21 07:43:27 51°16.231 2°54.1 12.4707 0.017212 0.087516 0.496866
2011-02-21 07:43:32 51°16.23 2°54.097 12.5023 0.017212 0.087522 0.496866
2011-02-21 07:43:37 51°16.229 2°54.093 12.5118 0.017212 0.087527 0.462042
2011-02-21 07:43:42 51°16.228 2°54.09 12.5137 0.017212 0.087533 0.496866
2011-02-21 07:43:47 51°16.227 2°54.086 12.5102 0.017212 0.087538 0.496866
2011-02-21 07:43:52 51°16.226 2°54.082 12.4945 0.017212 0.087546 0.462042
2011-02-21 07:43:57 51°16.225 2°54.079 12.4659 0.017212 0.087546 0.462042
2011-02-21 07:44:02 51°16.224 2°54.076 12.4923 0.017212 0.087551 0.462042
2011-02-21 07:44:07 51°16.224 2°54.073 12.4948 0.017212 0.087556 0.462042
2011-02-21 07:44:12 51°16.223 2°54.069 12.5094 0.017212 0.087563 0.462042
2011-02-21 07:44:17 51°16.222 2°54.066 12.4958 0.017212 0.087569 0.496866
2011-02-21 07:44:22 51°16.221 2°54.062 12.4712 0.017212 0.087575 0.462042
2011-02-21 07:44:27 51°16.22 2°54.059 12.4865 0.017212 0.087575 0.462042
2011-02-21 07:44:32 51°16.219 2°54.056 12.4885 0.017212 0.087581 0.427218
2011-02-21 07:44:37 51°16.219 2°54.052 12.4861 0.017212 0.087587 0.496866
2011-02-21 07:44:42 51°16.218 2°54.049 12.493 0.017212 0.087595 0.427218
2011-02-21 07:44:47 51°16.217 2°54.045 12.5085 0.017212 0.0876 0.462042
2011-02-21 07:44:52 51°16.216 2°54.042 12.5108 0.017212 0.087606 0.496866
2011-02-21 07:44:57 51°16.215 2°54.038 12.5088 0.017212 0.087606 0.496866
2011-02-21 07:45:02 51°16.214 2°54.034 12.5049 0.017212 0.087612 0.462042
2011-02-21 07:45:07 51°16.213 2°54.032 12.5193 0.017212 0.087618 0.496866
2011-02-21 07:45:12 51°16.212 2°54.029 12.5082 0.017212 0.087624 0.462042
2011-02-21 07:45:17 51°16.212 2°54.025 12.4997 0.017212 0.087629 0.496866
2011-02-21 07:45:22 51°16.211 2°54.022 12.5172 0.017212 0.087629 0.496866
2011-02-21 07:45:27 51°16.21 2°54.018 12.5163 0.017212 0.087634 0.427218
2011-02-21 07:45:32 51°16.209 2°54.015 12.5048 0.017212 0.08764 0.462042
2011-02-21 07:45:37 51°16.208 2°54.012 12.5158 0.017212 0.087645 0.496866
2011-02-21 07:45:42 51°16.207 2°54.008 12.4993 0.017212 0.087649 0.496866
2011-02-21 07:45:47 51°16.206 2°54.005 12.4652 0.017212 0.087657 0.462042
2011-02-21 07:45:52 51°16.205 2°54.002 12.5036 0.017212 0.08766 0.462042
2011-02-21 07:45:57 51°16.205 2°53.998 12.5178 0.017212 0.08766 0.462042
2011-02-21 07:46:02 51°16.204 2°53.995 12.4963 0.017212 0.087664 0.462042
2011-02-21 07:46:07 51°16.203 2°53.991 12.4897 0.017212 0.08767 0.496866
2011-02-21 07:46:12 51°16.202 2°53.988 12.5125 0.017212 0.087674 0.462042
2011-02-21 07:46:17 51°16.201 2°53.985 12.5062 0.017212 0.087678 0.496866
2011-02-21 07:46:22 51°16.2 2°53.982 12.4894 0.017212 0.087681 0.496866
2011-02-21 07:46:27 51°16.199 2°53.979 12.5076 0.017212 0.087681 0.496866
2011-02-21 07:46:32 51°16.198 2°53.975 12.5045 0.017212 0.087686 0.462042
2011-02-21 07:46:37 51°16.198 2°53.972 12.4994 0.017212 0.08769 0.462042
2011-02-21 07:46:42 51°16.197 2°53.969 12.4915 0.017212 0.087695 0.462042
2011-02-21 07:46:47 51°16.196 2°53.966 12.5228 0.017212 0.0877 0.496866
2011-02-21 07:46:52 51°16.195 2°53.962 12.5248 0.017212 0.087703 0.462042
2011-02-21 07:46:57 51°16.194 2°53.958 12.5193 0.017212 0.087703 0.462042
2011-02-21 07:47:02 51°16.193 2°53.955 12.5034 0.017212 0.087707 0.462042
2011-02-21 07:47:07 51°16.192 2°53.952 12.5099 0.017212 0.087709 0.462042
2011-02-21 07:47:12 51°16.191 2°53.948 12.5185 0.017212 0.087712 0.496866
2011-02-21 07:47:17 51°16.19 2°53.945 12.5039 0.017212 0.087716 0.462042
2011-02-21 07:47:22 51°16.189 2°53.941 12.5128 0.017212 0.087716 0.462042
2011-02-21 07:47:27 51°16.189 2°53.938 12.5244 0.017212 0.08772 0.496866
2011-02-21 07:47:32 51°16.188 2°53.934 12.5217 0.017212 0.087723 0.462042
2011-02-21 07:47:37 51°16.187 2°53.931 12.508 0.017212 0.087726 0.462042
2011-02-21 07:47:42 51°16.186 2°53.927 12.5193 0.017212 0.08773 0.427218
2011-02-21 07:47:47 51°16.185 2°53.924 12.4986 0.017108 0.087228 0.462042
2011-02-21 07:47:52 51°16.183 2°53.92 12.5268 0.017108 0.087231 0.462042
2011-02-21 07:47:57 51°16.181 2°53.916 12.5255 0.017108 0.087231 0.462042
2011-02-21 07:48:02 51°16.179 2°53.912 12.5008 0.017108 0.087233 0.496866
2011-02-21 07:48:07 51°16.176 2°53.907 12.537 0.017108 0.087236 0.462042
2011-02-21 07:48:12 51°16.173 2°53.903 12.5331 0.017212 0.087745 0.462042
2011-02-21 07:48:17 51°16.17 2°53.897 12.5039 0.017212 0.087746 0.496866
2011-02-21 07:48:22 51°16.166 2°53.892 12.463 0.017108 0.087244 0.462042
2011-02-21 07:48:27 51°16.162 2°53.886 12.5033 0.017108 0.087244 0.462042
2011-02-21 07:48:32 51°16.159 2°53.878 12.4993 0.017108 0.087246 0.462042
2011-02-21 07:48:37 51°16.155 2°53.869 12.4261 0.017212 0.087753 0.462042
2011-02-21 07:48:42 51°16.152 2°53.86 12.3902 0.017108 0.087251 0.462042
2011-02-21 07:48:47 51°16.149 2°53.851 12.5429 0.017108 0.087254 0.949579
2011-02-21 07:48:52 51°16.147 2°53.84 12.8059 0.017108 0.087254 0.949579
2011-02-21 07:48:57 51°16.145 2°53.829 12.7914 0.017108 0.087256 0.949579
2011-02-21 07:49:02 51°16.144 2°53.817 12.7555 0.017108 0.087258 0.670986
2011-02-21 07:49:07 51°16.143 2°53.806 12.7031 0.017108 0.08726 0.636162
2011-02-21 07:49:12 51°16.143 2°53.794 12.6967 0.017108 0.087262 0.636162
2011-02-21 07:49:17 51°16.144 2°53.783 12.705 0.017108 0.087266 0.636162
2011-02-21 07:49:22 51°16.145 2°53.771 12.6859 0.017212 0.087773 0.566514
2011-02-21 07:49:27 51°16.148 2°53.76 12.6812 0.017212 0.087773 0.566514
2011-02-21 07:49:32 51°16.151 2°53.75 12.6831 0.017108 0.087272 0.566514
2011-02-21 07:49:37 51°16.154 2°53.74 12.6829 0.017108 0.087274 0.566514
2011-02-21 07:49:42 51°16.158 2°53.731 12.6736 0.017108 0.087276 0.53169
2011-02-21 07:49:47 51°16.162 2°53.723 12.6718 0.017108 0.087278 0.53169
2011-02-21 07:49:52 51°16.167 2°53.716 12.6717 0.017108 0.08728 0.496866
2011-02-21 07:49:57 51°16.172 2°53.71 12.6717 0.017108 0.08728 0.496866
2011-02-21 07:50:02 51°16.177 2°53.705 12.6771 0.017108 0.087283 0.462042
2011-02-21 07:50:07 51°16.182 2°53.7 12.6866 0.017108 0.087286 0.462042
2011-02-21 07:50:11 51°16.187 2°53.698 12.679 0.017108 0.087288 0.496866
2011-02-21 07:50:17 51°16.194 2°53.695 12.6879 0.017108 0.087291 0.462042
2011-02-21 07:50:22 51°16.199 2°53.694 12.6844 0.017108 0.087294 0.462042
2011-02-21 07:50:27 51°16.204 2°53.695 12.6802 0.017108 0.087294 0.462042
2011-02-21 07:50:32 51°16.209 2°53.696 12.682 0.017108 0.087296 0.496866
2011-02-21 07:50:37 51°16.213 2°53.698 12.6816 0.017108 0.087298 0.496866
2011-02-21 07:50:42 51°16.218 2°53.701 12.6841 0.017108 0.087302 0.462042
2011-02-21 07:50:47 51°16.221 2°53.705 12.6852 0.017108 0.087304 0.462042
2011-02-21 07:50:51 51°16.224 2°53.709 12.687 0.017108 0.087304 0.462042
2011-02-21 07:50:57 51°16.227 2°53.715 12.6873 0.017108 0.087306 0.462042
2011-02-21 07:51:02 51°16.229 2°53.721 12.6878 0.017108 0.087309 0.427218
2011-02-21 07:51:07 51°16.231 2°53.727 12.6814 0.017108 0.08731 0.427218
2011-02-21 07:51:11 51°16.232 2°53.734 12.6889 0.017108 0.087313 0.462042
2011-02-21 07:51:17 51°16.233 2°53.744 12.684 0.017108 0.087317 0.462042
2011-02-21 07:51:22 51°16.233 2°53.754 12.6914 0.017108 0.087319 0.462042
2011-02-21 07:51:27 51°16.231 2°53.764 12.6907 0.017108 0.087319 0.462042
2011-02-21 07:51:32 51°16.23 2°53.774 12.684 0.017108 0.087321 0.462042
2011-02-21 07:51:36 51°16.228 2°53.783 12.6848 0.017108 0.087323 0.427218
2011-02-21 07:51:42 51°16.225 2°53.797 12.6812 0.017108 0.087325 0.462042
2011-02-21 07:51:47 51°16.222 2°53.809 12.6845 0.017108 0.087328 0.427218
2011-02-21 07:51:52 51°16.219 2°53.821 12.6798 0.017108 0.08733 0.462042
2011-02-21 07:51:57 51°16.217 2°53.835 12.6925 0.017108 0.08733 0.462042
2011-02-21 07:52:02 51°16.214 2°53.848 12.6812 0.017108 0.087334 0.462042
2011-02-21 07:52:07 51°16.213 2°53.862 12.6859 0.017108 0.087337 0.462042
2011-02-21 07:52:12 51°16.212 2°53.876 12.691 0.017108 0.08734 0.427218
2011-02-21 07:52:17 51°16.212 2°53.891 12.6918 0.017108 0.087349 0.427218
2011-02-21 07:52:22 51°16.211 2°53.906 12.7043 0.017108 0.087351 0.427218
2011-02-21 07:52:27 51°16.211 2°53.92 12.7165 0.017108 0.087351 0.427218
2011-02-21 07:52:32 51°16.211 2°53.935 12.7197 0.017108 0.087351 0.496866
2011-02-21 07:52:37 51°16.212 2°53.95 12.737 0.017108 0.087353 0.427218
2011-02-21 07:52:42 51°16.212 2°53.965 12.7644 0.017108 0.087356 0.427218
2011-02-21 07:52:47 51°16.214 2°53.98 12.7556 0.017108 0.087357 0.496866
2011-02-21 07:52:52 51°16.215 2°53.996 12.7483 0.017108 0.08736 0.427218
2011-02-21 07:52:57 51°16.216 2°54.011 12.7379 0.017108 0.08736 0.427218
2011-02-21 07:53:02 51°16.216 2°54.026 12.7506 0.017108 0.087361 0.427218
2011-02-21 07:53:07 51°16.218 2°54.042 12.7542 0.017108 0.087364 0.427218
2011-02-21 07:53:11 51°16.218 2°54.054 12.744 0.017108 0.087367 0.462042
2011-02-21 07:53:17 51°16.219 2°54.072 12.761 0.017108 0.087369 0.462042
2011-02-21 07:53:22 51°16.219 2°54.088 12.7434 0.017108 0.087371 0.462042
2011-02-21 07:53:27 51°16.221 2°54.104 12.759 0.017108 0.087371 0.462042
2011-02-21 07:53:32 51°16.221 2°54.119 12.7553 0.017108 0.087374 0.427218
2011-02-21 07:53:36 51°16.222 2°54.132 12.7505 0.017108 0.087375 0.427218
2011-02-21 07:53:42 51°16.223 2°54.151 12.795 0.017108 0.087379 0.462042
2011-02-21 07:53:47 51°16.224 2°54.166 12.7596 0.017108 0.087381 0.427218
2011-02-21 07:53:52 51°16.225 2°54.182 12.8011 0.017108 0.087384 0.462042
2011-02-21 07:53:57 51°16.226 2°54.197 12.7717 0.017108 0.087384 0.462042
2011-02-21 07:54:02 51°16.226 2°54.211 12.777 0.017108 0.087385 0.427218
2011-02-21 07:54:07 51°16.228 2°54.226 12.7736 0.017108 0.087387 0.462042
2011-02-21 07:54:12 51°16.228 2°54.239 12.7831 0.017108 0.087389 0.462042
2011-02-21 07:54:17 51°16.229 2°54.252 12.7795 0.017108 0.087391 0.462042
2011-02-21 07:54:22 51°16.229 2°54.265 12.7905 0.017108 0.087391 0.462042
2011-02-21 07:54:27 51°16.23 2°54.277 12.7888 0.017108 0.087394 0.427218
2011-02-21 07:54:32 51°16.23 2°54.288 12.7798 0.017108 0.087397 0.427218
2011-02-21 07:54:37 51°16.23 2°54.298 12.7928 0.017108 0.087398 0.462042
2011-02-21 07:54:42 51°16.23 2°54.307 12.7849 0.017108 0.087399 0.427218
2011-02-21 07:54:47 51°16.23 2°54.316 12.795 0.017108 0.087402 0.462042
2011-02-21 07:54:52 51°16.23 2°54.324 12.7854 0.017108 0.087404 0.427218
2011-02-21 07:54:57 51°16.229 2°54.331 12.8213 0.017108 0.087404 0.427218
2011-02-21 07:55:02 51°16.228 2°54.338 12.7881 0.017108 0.087405 0.427218
2011-02-21 07:55:07 51°16.226 2°54.344 12.8327 0.017108 0.087407 0.427218
2011-02-21 07:55:11 51°16.226 2°54.348 12.8024 0.017108 0.087409 0.427218
2011-02-21 07:55:17 51°16.224 2°54.353 12.8226 0.017108 0.087411 0.462042
2011-02-21 07:55:22 51°16.223 2°54.357 12.8033 0.017108 0.087413 0.462042
2011-02-21 07:55:27 51°16.221 2°54.36 12.8105 0.017108 0.087413 0.462042
2011-02-21 07:55:32 51°16.22 2°54.362 12.7989 0.017108 0.087414 0.462042
2011-02-21 07:55:37 51°16.217 2°54.364 12.8065 0.017108 0.087415 0.427218
2011-02-21 07:55:42 51°16.216 2°54.366 12.8047 0.017108 0.087416 0.427218
2011-02-21 07:55:47 51°16.214 2°54.368 12.8093 0.017108 0.087418 0.427218
2011-02-21 07:55:52 51°16.212 2°54.37 12.8103 0.017108 0.087418 0.427218
2011-02-21 07:55:57 51°16.209 2°54.371 12.8209 0.017108 0.08742 0.462042
2011-02-21 07:56:02 51°16.208 2°54.372 12.8104 0.017108 0.087421 0.462042
2011-02-21 07:56:07 51°16.206 2°54.374 12.8175 0.017108 0.087424 0.462042
2011-02-21 07:56:12 51°16.204 2°54.375 12.8171 0.017108 0.087425 0.462042
2011-02-21 07:56:16 51°16.202 2°54.376 12.8181 0.017108 0.087426 0.427218
2011-02-21 07:56:22 51°16.201 2°54.377 12.8209 0.017108 0.087428 0.462042
2011-02-21 07:56:27 51°16.199 2°54.378 12.8232 0.017108 0.087428 0.462042
2011-02-21 07:56:31 51°16.198 2°54.379 12.8226 0.017108 0.08743 0.462042
2011-02-21 07:56:37 51°16.196 2°54.38 12.8297 0.017108 0.087432 0.427218
2011-02-21 07:56:42 51°16.194 2°54.38 12.8225 0.017108 0.087433 0.427218
2011-02-21 07:56:47 51°16.193 2°54.381 12.8366 0.017108 0.087434 0.427218
2011-02-21 07:56:52 51°16.192 2°54.382 12.8446 0.017108 0.087436 0.462042
2011-02-21 07:56:57 51°16.191 2°54.382 12.8522 0.017108 0.087436 0.462042
2011-02-21 07:57:02 51°16.19 2°54.383 12.8375 0.017108 0.087438 0.462042
2011-02-21 07:57:07 51°16.189 2°54.383 12.8507 0.017108 0.08744 0.462042
2011-02-21 07:57:12 51°16.188 2°54.383 12.846 0.017108 0.087442 0.496866
2011-02-21 07:57:17 51°16.187 2°54.383 12.8764 0.017108 0.087444 0.427218
2011-02-21 07:57:22 51°16.187 2°54.383 12.8554 0.017108 0.087444 0.462042
2011-02-21 07:57:27 51°16.186 2°54.383 12.8643 0.017108 0.087444 0.462042
2011-02-21 07:57:31 51°16.185 2°54.383 12.8604 0.017108 0.087445 0.496866
2011-02-21 07:57:37 51°16.185 2°54.383 12.8648 0.017108 0.087446 0.462042
2011-02-21 07:57:42 51°16.184 2°54.383 12.8618 0.017108 0.087448 0.462042
2011-02-21 07:57:47 51°16.184 2°54.383 12.8694 0.017108 0.087449 0.462042
2011-02-21 07:57:52 51°16.183 2°54.382 12.5624 0.017108 0.087449 0.462042
2011-02-21 07:57:57 51°16.182 2°54.382 6.4248 0.017108 0.087451 0.496866
2011-02-21 07:58:02 51°16.182 2°54.381 6.2892 0.017108 0.087453 0.462042
2011-02-21 07:58:07 51°16.182 2°54.381 6.2496 0.017108 0.087453 0.845107
2011-02-21 07:58:12 51°16.181 2°54.38 6.258 0.017108 0.087455 0.775459
2011-02-21 07:58:17 51°16.181 2°54.38 6.2341 0.017108 0.08746 0.18345
2011-02-21 07:58:22 51°16.182 2°54.379 6.189 0.017108 0.0875 0.740634
2011-02-21 07:58:27 51°16.181 2°54.378 6.1645 0.017108 0.0875 0.740634
2011-02-21 07:58:32 51°16.181 2°54.377 6.1333 0.017108 0.087598 1.193347
2011-02-21 07:58:37 51°16.181 2°54.376 6.1155 0.017108 0.08764 1.332643
2011-02-21 07:58:42 51°16.181 2°54.375 6.1095 0.017108 0.087619 1.402292
2011-02-21 07:58:47 51°16.181 2°54.374 6.0929 0.017108 0.087609 1.297819
2011-02-21 07:58:52 51°16.181 2°54.373 6.0853 0.017108 0.087602 1.262995
2011-02-21 07:58:57 51°16.181 2°54.372 6.0779 0.017108 0.087602 1.262995
2011-02-21 07:59:02 51°16.181 2°54.371 6.0724 0.017108 0.087586 1.297819
2011-02-21 07:59:07 51°16.18 2°54.369 6.0721 0.017108 0.087568 1.297819
2011-02-21 07:59:12 51°16.181 2°54.368 6.0635 0.017108 0.087551 1.297819
2011-02-21 07:59:17 51°16.181 2°54.367 6.0584 0.017108 0.087542 1.262995
2011-02-21 07:59:22 51°16.181 2°54.366 6.058 0.017108 0.087536 1.262995
2011-02-21 07:59:27 51°16.181 2°54.365 6.0561 0.017108 0.087536 1.262995
2011-02-21 07:59:31 51°16.181 2°54.363 6.0524 0.017108 0.087534 1.262995
2011-02-21 07:59:37 51°16.181 2°54.362 6.0541 0.017108 0.087523 1.262995
2011-02-21 07:59:42 51°16.182 2°54.36 6.052 0.017108 0.087527 1.228171
2011-02-21 07:59:47 51°16.182 2°54.359 6.3503 0.017108 0.087527 1.297819
2011-02-21 07:59:52 51°16.182 2°54.357 6.5083 0.017108 0.087527 1.297819
2011-02-21 07:59:57 51°16.182 2°54.355 6.5133 0.017108 0.08757 1.332643
2011-02-21 08:00:02 51°16.182 2°54.353 6.0616 0.017108 0.087312 1.262995
2011-02-21 08:00:07 51°16.182 2°54.352 6.0396 0.017108 0.087299 0.287922
2011-02-21 08:00:11 51°16.183 2°54.351 6.0384 0.019396 0.108049 0.218274
2011-02-21 08:00:17 51°16.183 2°54.349 6.0272 3.875323 34.799709 0.775459
2011-02-21 08:00:22 51°16.183 2°54.347 6.0246 4.167987 38.400308 0.496866
2011-02-21 08:00:27 51°16.183 2°54.345 6.025 4.167987 38.400308 0.496866
2011-02-21 08:00:32 51°16.184 2°54.344 6.0237 4.06187 39.514495 0.462042
2011-02-21 08:00:36 51°16.184 2°54.342 6.02 3.725279 36.649849 0.462042
2011-02-21 08:00:42 51°16.184 2°54.34 6.0186 3.566898 35.323151 0.392394
2011-02-21 08:00:47 51°16.184 2°54.338 6.0203 3.508279 34.949305 0.392394
2011-02-21 08:00:52 51°16.185 2°54.336 6.0223 3.442496 34.353534 0.35757
2011-02-21 08:00:57 51°16.184 2°54.334 6.0194 3.442496 34.353534 0.35757
2011-02-21 08:01:02 51°16.185 2°54.332 6.0199 3.412769 34.108661 0.427218
2011-02-21 08:01:07 51°16.185 2°54.33 6.0164 3.384203 33.854639 0.566514
2011-02-21 08:01:12 51°16.185 2°54.328 6.0166 3.370605 33.729955 0.427218
2011-02-21 08:01:17 51°16.185 2°54.326 6.0228 3.356587 33.607258 0.392394
2011-02-21 08:01:22 51°16.185 2°54.324 6.0141 3.346573 33.501929 0.462042
2011-02-21 08:01:27 51°16.186 2°54.322 6.016 3.346573 33.501929 0.462042
2011-02-21 08:01:31 51°16.186 2°54.32 6.0173 3.335928 33.404736 0.462042
2011-02-21 08:01:37 51°16.186 2°54.318 6.0144 3.331396 33.368684 0.427218
2011-02-21 08:01:42 51°16.186 2°54.316 6.0159 3.326126 33.31685 0.392394
2011-02-21 08:01:47 51°16.187 2°54.314 6.015 3.323596 33.294621 0.427218
2011-02-21 08:01:52 51°16.187 2°54.312 6.0145 3.319486 33.253141 0.35757
2011-02-21 08:01:57 51°16.187 2°54.309 6.0108 3.319486 33.253141 0.35757
2011-02-21 08:02:02 51°16.187 2°54.308 6.0137 3.318432 33.256528 0.392394
2011-02-21 08:02:07 51°16.187 2°54.305 6.0107 3.317694 33.244971 0.427218
2011-02-21 08:02:11 51°16.187 2°54.304 6.0109 3.316956 33.240126 0.427218
2011-02-21 08:02:17 51°16.188 2°54.301 6.0123 3.316218 33.236958 0.392394
2011-02-21 08:02:22 51°16.188 2°54.299 6.0129 3.314005 33.228288 0.392394
2011-02-21 08:02:27 51°16.188 2°54.297 6.0109 3.314005 33.228288 0.392394
2011-02-21 08:02:32 51°16.188 2°54.294 6.0109 3.313689 33.224771 0.392394
2011-02-21 08:02:37 51°16.188 2°54.292 6.0098 3.312424 33.217417 0.392394
2011-02-21 08:02:42 51°16.188 2°54.29 6.0082 3.312951 33.223278 0.392394
2011-02-21 08:02:47 51°16.189 2°54.288 6.0046 3.312214 33.220946 0.392394
2011-02-21 08:02:52 51°16.189 2°54.286 6.0107 3.311792 33.219613 0.392394
2011-02-21 08:02:57 51°16.189 2°54.284 6.0058 3.311792 33.219613 0.392394
2011-02-21 08:03:02 51°16.189 2°54.282 6.0063 3.310316 33.202359 0.392394
2011-02-21 08:03:07 51°16.189 2°54.28 6.0098 3.291872 33.004777 0.392394
2011-02-21 08:03:11 51°16.19 2°54.278 6.0098 3.312635 33.23655 0.392394
2011-02-21 08:03:17 51°16.19 2°54.276 6.0066 3.312003 33.233712 0.392394
2011-02-21 08:03:22 51°16.19 2°54.273 6.0083 3.3139 33.248105 0.35757
2011-02-21 08:03:27 51°16.19 2°54.272 6.0055 3.3139 33.248105 0.35757
2011-02-21 08:03:32 51°16.19 2°54.27 6.0102 3.313373 33.246441 0.322746
2011-02-21 08:03:37 51°16.191 2°54.267 6.0099 3.312952 33.248471 0.322746
2011-02-21 08:03:42 51°16.191 2°54.265 6.0107 3.312635 33.249994 0.427218
2011-02-21 08:03:47 51°16.191 2°54.264 6.0124 3.312741 33.252008 0.427218
2011-02-21 08:03:52 51°16.191 2°54.262 6.0088 3.310527 33.226528 0.427218
2011-02-21 08:03:57 51°16.191 2°54.26 6.0093 3.310527 33.226528 0.427218
2011-02-21 08:04:02 51°16.191 2°54.258 6.0082 3.312846 33.2515 0.322746
2011-02-21 08:04:07 51°16.192 2°54.256 6.0072 3.311055 33.239117 0.392394
2011-02-21 08:04:11 51°16.192 2°54.255 6.005 3.310949 33.239625 0.322746
2011-02-21 08:04:17 51°16.192 2°54.252 6.0054 3.311265 33.244827 0.35757
2011-02-21 08:04:22 51°16.192 2°54.25 6.0048 3.322227 33.363541 0.427218
2011-02-21 08:04:27 51°16.192 2°54.248 6.0068 3.322227 33.363541 0.427218
2011-02-21 08:04:32 51°16.193 2°54.246 6.0097 3.322227 33.362698 0.35757
2011-02-21 08:04:37 51°16.193 2°54.244 6.0082 3.321489 33.362916 0.322746
2011-02-21 08:04:42 51°16.193 2°54.242 6.0105 3.321489 33.362916 0.35757
2011-02-21 08:04:47 51°16.193 2°54.24 6.0088 3.321068 33.353157 0.322746
2011-02-21 08:04:52 51°16.194 2°54.238 6.0066 3.321068 33.358218 0.322746
2011-02-21 08:04:57 51°16.194 2°54.236 6.0077 3.321068 33.358218 0.322746
2011-02-21 08:05:02 51°16.194 2°54.234 6.0066 3.321068 33.363282 0.322746
2011-02-21 08:05:07 51°16.194 2°54.232 6.0068 3.320646 33.35774 0.322746
2011-02-21 08:05:12 51°16.195 2°54.23 6.0048 3.320751 33.360602 0.322746
2011-02-21 08:05:16 51°16.195 2°54.229 6.0049 3.319908 33.354581 0.427218
2011-02-21 08:05:22 51°16.195 2°54.227 6.0066 3.320224 33.355573 0.392394
2011-02-21 08:05:27 51°16.195 2°54.224 6.0009 3.320224 33.355573 0.392394
2011-02-21 08:05:32 51°16.195 2°54.222 6.0026 3.320119 33.356931 0.287922
2011-02-21 08:05:37 51°16.195 2°54.221 6 3.320224 33.360637 0.392394
2011-02-21 08:05:42 51°16.196 2°54.219 6.0013 3.319803 33.354251 0.35757
2011-02-21 08:05:47 51°16.196 2°54.217 6.0012 3.320014 33.360821 0.287922
2011-02-21 08:05:52 51°16.196 2°54.215 5.9997 3.320119 33.361995 0.35757
2011-02-21 08:05:57 51°16.196 2°54.213 6.0017 3.320119 33.361995 0.35757
2011-02-21 08:06:02 51°16.196 2°54.211 6.0011 3.320119 33.363684 0.322746
2011-02-21 08:06:07 51°16.197 2°54.209 6.0005 3.319698 33.364051 0.287922
2011-02-21 08:06:12 51°16.197 2°54.207 6.0001 3.319487 33.358323 0.322746
2011-02-21 08:06:17 51°16.197 2°54.206 6.0015 3.319065 33.355312 0.253098
2011-02-21 08:06:22 51°16.197 2°54.204 6.0014 3.319171 33.356487 0.253098
2011-02-21 08:06:27 51°16.197 2°54.201 6.0045 3.319171 33.356487 0.253098
2011-02-21 08:06:32 51°16.197 2°54.2 6.0052 3.318854 33.354651 0.322746
2011-02-21 08:06:37 51°16.198 2°54.198 6.0029 3.318854 33.357184 0.287922
2011-02-21 08:06:42 51°16.198 2°54.196 6.0035 3.318854 33.359717 0.392394
2011-02-21 08:06:47 51°16.198 2°54.194 6.0013 3.318749 33.36192 0.322746
2011-02-21 08:06:51 51°16.198 2°54.192 6.0015 3.318222 33.356888 0.322746
2011-02-21 08:06:57 51°16.198 2°54.189 6.0013 3.318222 33.356888 0.322746
2011-02-21 08:07:02 51°16.198 2°54.187 6.0002 3.318644 33.354834 0.322746
2011-02-21 08:07:07 51°16.198 2°54.185 6.0011 3.317695 33.347635 0.322746
2011-02-21 08:07:12 51°16.199 2°54.183 6.0013 3.318011 33.35116 0.322746
2011-02-21 08:07:17 51°16.199 2°54.181 6.0003 3.318117 33.35318 0.322746
2011-02-21 08:07:22 51°16.199 2°54.179 6.0026 3.317484 33.346129 0.322746
2011-02-21 08:07:27 51°16.199 2°54.177 6.0023 3.317484 33.346129 0.322746
2011-02-21 08:07:32 51°16.2 2°54.174 6.0014 3.317906 33.355052 0.253098
2011-02-21 08:07:37 51°16.2 2°54.172 6.0028 3.317695 33.351012 0.287922
2011-02-21 08:07:42 51°16.2 2°54.171 6.0033 3.317906 33.355052 0.287922
2011-02-21 08:07:47 51°16.2 2°54.168 6.0018 3.31759 33.35237 0.322746
2011-02-21 08:07:52 51°16.2 2°54.166 6.0025 3.317484 33.352884 0.253098
2011-02-21 08:07:57 51°16.2 2°54.164 5.9998 3.317484 33.352884 0.253098
2011-02-21 08:08:02 51°16.2 2°54.162 6.0005 3.31759 33.353215 0.218274
2011-02-21 08:08:07 51°16.201 2°54.16 5.9998 3.317274 33.351378 0.287922
2011-02-21 08:08:12 51°16.201 2°54.158 6.0012 3.317063 33.349872 0.253098
2011-02-21 08:08:17 51°16.201 2°54.156 6.0023 3.317484 33.353729 0.322746
2011-02-21 08:08:22 51°16.201 2°54.154 6.0007 3.317274 33.351378 0.253098
2011-02-21 08:08:27 51°16.201 2°54.152 6.0006 3.317274 33.351378 0.253098
2011-02-21 08:08:31 51°16.202 2°54.15 6.0013 3.316957 33.346163 0.392394
2011-02-21 08:08:37 51°16.202 2°54.147 5.9998 3.317063 33.349872 0.322746
2011-02-21 08:08:42 51°16.202 2°54.145 6.003 3.317063 33.354095 0.253098
2011-02-21 08:08:47 51°16.203 2°54.143 6.0008 3.316852 33.34921 0.287922
2011-02-21 08:08:52 51°16.203 2°54.141 6.0013 3.316852 33.34921 0.287922
2011-02-21 08:08:57 51°16.203 2°54.138 6.0006 3.316641 33.346014 0.287922
2011-02-21 08:09:02 51°16.203 2°54.136 6.0006 3.317168 33.35527 0.35757
2011-02-21 08:09:07 51°16.204 2°54.134 6.001 3.316747 33.350568 0.287922
2011-02-21 08:09:11 51°16.204 2°54.132 5.9993 3.316747 33.349724 0.322746
2011-02-21 08:09:17 51°16.204 2°54.129 6.0013 3.316957 33.352075 0.322746
2011-02-21 08:09:22 51°16.204 2°54.127 5.9991 3.316957 33.352919 0.322746
2011-02-21 08:09:27 51°16.205 2°54.125 5.9994 3.316957 33.352919 0.322746
2011-02-21 08:09:32 51°16.205 2°54.123 5.9983 3.316747 33.350568 0.322746
2011-02-21 08:09:36 51°16.205 2°54.121 5.9994 3.316641 33.348548 0.287922
2011-02-21 08:09:42 51°16.205 2°54.118 5.9995 3.316536 33.349062 0.35757
2011-02-21 08:09:47 51°16.206 2°54.117 5.9975 3.316536 33.353286 0.287922
2011-02-21 08:09:52 51°16.206 2°54.114 5.9971 3.316325 33.3484 0.287922
2011-02-21 08:09:57 51°16.206 2°54.112 5.998 3.316325 33.3484 0.287922
2011-02-21 08:10:02 51°16.206 2°54.11 5.9966 3.31643 33.3538 0.287922
2011-02-21 08:10:07 51°16.207 2°54.108 5.9991 3.31622 33.349758 0.253098
2011-02-21 08:10:11 51°16.207 2°54.106 5.9986 3.316325 33.350934 0.253098
2011-02-21 08:10:17 51°16.207 2°54.103 5.9964 3.316747 33.357327 0.287922
2011-02-21 08:10:22 51°16.207 2°54.101 5.9982 3.316747 33.357327 0.287922
2011-02-21 08:10:27 51°16.208 2°54.099 5.9972 3.316641 33.353616 0.287922
2011-02-21 08:10:32 51°16.208 2°54.097 5.9974 3.316114 33.349428 0.253098
2011-02-21 08:10:37 51°16.208 2°54.095 5.9953 3.316641 33.355306 0.253098
2011-02-21 08:10:42 51°16.208 2°54.093 5.997 3.31622 33.352293 0.322746
2011-02-21 08:10:47 51°16.209 2°54.091 5.9966 3.316536 33.354975 0.392394
2011-02-21 08:10:52 51°16.209 2°54.089 5.9991 3.316114 33.351117 0.322746
2011-02-21 08:10:57 51°16.209 2°54.087 5.996 3.316114 33.351117 0.322746
2011-02-21 08:11:02 51°16.209 2°54.085 5.9974 3.316536 33.358356 0.322746
2011-02-21 08:11:07 51°16.209 2°54.083 5.997 3.316325 33.356004 0.287922
2011-02-21 08:11:11 51°16.209 2°54.081 5.9966 3.316114 33.352807 0.35757
2011-02-21 08:11:17 51°16.209 2°54.078 5.9977 3.315587 33.348618 0.287922
2011-02-21 08:11:22 51°16.209 2°54.076 5.9975 3.315904 33.35299 0.287922
2011-02-21 08:11:27 51°16.21 2°54.074 5.9974 3.315904 33.35299 0.287922
2011-02-21 08:11:32 51°16.21 2°54.072 5.9976 3.315798 33.35266 0.322746
2011-02-21 08:11:37 51°16.21 2°54.07 5.9953 3.314955 33.341563 0.287922
2011-02-21 08:11:42 51°16.21 2°54.068 5.9971 3.315377 33.345421 0.287922
2011-02-21 08:11:47 51°16.211 2°54.066 5.9984 3.316114 33.353652 0.287922
2011-02-21 08:11:52 51°16.211 2°54.063 5.9967 3.316114 33.353652 0.287922
2011-02-21 08:11:57 51°16.211 2°54.061 5.9967 3.315587 33.346928 0.287922
2011-02-21 08:12:02 51°16.211 2°54.059 5.9929 3.315904 33.352145 0.287922
2011-02-21 08:12:07 51°16.212 2°54.057 5.9963 3.315904 33.353836 0.322746
2011-02-21 08:12:12 51°16.212 2°54.054 5.9953 3.315693 33.351484 0.287922
2011-02-21 08:12:17 51°16.212 2°54.052 5.9937 3.315271 33.347625 0.322746
2011-02-21 08:12:22 51°16.212 2°54.051 5.995 3.315271 33.347625 0.322746
2011-02-21 08:12:27 51°16.212 2°54.048 5.9936 3.315904 33.354681 0.287922
2011-02-21 08:12:32 51°16.212 2°54.046 5.9941 3.315377 33.351336 0.287922
2011-02-21 08:12:37 51°16.212 2°54.044 5.9941 3.315587 33.352843 0.35757
2011-02-21 08:12:42 51°16.212 2°54.042 5.995 3.315271 33.35185 0.35757
2011-02-21 08:12:47 51°16.212 2°54.04 5.9949 3.316114 33.360414 0.218274
2011-02-21 08:12:52 51°16.213 2°54.038 5.9939 3.315377 33.353026 0.322746
2011-02-21 08:12:57 51°16.213 2°54.036 5.9962 3.315377 33.353026 0.322746
2011-02-21 08:13:02 51°16.213 2°54.034 5.9933 3.315587 33.356224 0.322746
2011-02-21 08:13:07 51°16.213 2°54.031 5.9949 3.315587 33.357069 0.322746
2011-02-21 08:13:12 51°16.213 2°54.029 5.9927 3.315798 33.358576 0.392394
2011-02-21 08:13:17 51°16.213 2°54.027 5.9937 3.315377 33.354717 0.496866
2011-02-21 08:13:22 51°16.214 2°54.025 5.9926 3.315166 33.350674 0.287922
2011-02-21 08:13:27 51°16.214 2°54.023 5.9932 3.315166 33.350674 0.287922
2011-02-21 08:13:32 51°16.214 2°54.021 5.9912 3.315377 33.353872 0.253098
2011-02-21 08:13:37 51°16.214 2°54.019 5.9908 3.31506 33.350343 0.253098
2011-02-21 08:13:42 51°16.214 2°54.017 5.9928 3.315166 33.35321 0.287922
2011-02-21 08:13:47 51°16.215 2°54.014 5.993 3.315693 33.359936 0.253098
2011-02-21 08:13:52 51°16.215 2°54.012 5.995 3.315693 33.359936 0.253098
2011-02-21 08:13:57 51°16.215 2°54.01 5.9929 3.315798 33.360267 0.287922
2011-02-21 08:14:02 51°16.215 2°54.008 5.9929 3.31506 33.352034 0.253098
2011-02-21 08:14:07 51°16.215 2°54.006 5.9935 3.315482 33.359275 0.287922
2011-02-21 08:14:12 51°16.216 2°54.004 5.9937 3.31506 33.35457 0.287922
2011-02-21 08:14:16 51°16.216 2°54.002 5.9943 3.315377 33.358944 0.287922
2011-02-21 08:14:22 51°16.217 2°54 5.9948 3.315377 33.358944 0.287922
2011-02-21 08:14:27 51°16.218 2°53.999 5.9938 3.315166 33.355746 0.287922
2011-02-21 08:14:31 51°16.218 2°53.998 5.9935 3.315166 33.356591 0.253098
2011-02-21 08:14:37 51°16.219 2°53.997 5.9938 3.31485 33.353063 0.287922
2011-02-21 08:14:42 51°16.22 2°53.997 5.9958 3.31506 33.355415 0.287922
2011-02-21 08:14:47 51°16.222 2°53.997 5.9942 3.314744 33.352732 0.392394
2011-02-21 08:14:52 51°16.223 2°53.997 5.9964 3.31485 33.353063 0.287922
2011-02-21 08:14:57 51°16.224 2°53.997 5.9962 3.31485 33.353063 0.287922
2011-02-21 08:15:02 51°16.226 2°53.998 5.9958 3.31485 33.352217 0.287922
2011-02-21 08:15:07 51°16.227 2°53.999 5.9946 3.31485 33.353063 0.322746
2011-02-21 08:15:11 51°16.228 2°54 5.9941 3.315166 33.358282 0.287922
2011-02-21 08:15:17 51°16.229 2°54.001 5.9919 3.314533 33.346998 0.287922
2011-02-21 08:15:22 51°16.23 2°54.002 5.9942 3.314533 33.346998 0.287922
2011-02-21 08:15:27 51°16.231 2°54.003 5.9908 3.31506 33.355415 0.253098
2011-02-21 08:15:32 51°16.232 2°54.004 5.993 3.315482 33.358429 0.287922
2011-02-21 08:15:37 51°16.233 2°54.005 5.9934 3.315482 33.36012 0.322746
2011-02-21 08:15:42 51°16.234 2°54.006 5.9926 3.315904 33.36398 0.322746
2011-02-21 08:15:47 51°16.235 2°54.006 5.9926 3.315166 33.355746 0.253098
2011-02-21 08:15:52 51°16.235 2°54.007 5.992 3.315587 33.361297 0.253098
2011-02-21 08:15:57 51°16.236 2°54.006 5.9917 3.315587 33.361297 0.253098
2011-02-21 08:16:02 51°16.236 2°54.006 5.9913 3.314744 33.352732 0.253098
2011-02-21 08:16:07 51°16.237 2°54.005 5.9922 3.315061 33.357106 0.287922
2011-02-21 08:16:11 51°16.237 2°54.004 5.9915 3.314534 33.352915 0.287922
2011-02-21 08:16:17 51°16.237 2°54.003 5.9933 3.314744 33.355268 0.322746
2011-02-21 08:16:22 51°16.237 2°54.001 5.9941 3.315166 33.359974 0.287922
2011-02-21 08:16:27 51°16.237 2°53.999 5.993 3.315166 33.359974 0.287922
2011-02-21 08:16:32 51°16.237 2°53.997 5.9928 3.314007 33.346188 0.287922
2011-02-21 08:16:37 51°16.237 2°53.994 5.9937 3.314534 33.351224 0.287922
2011-02-21 08:16:42 51°16.236 2°53.991 5.9931 3.314534 33.352915 0.287922
2011-02-21 08:16:47 51°16.236 2°53.988 5.9947 3.314534 33.351224 0.322746
2011-02-21 08:16:52 51°16.236 2°53.986 5.9932 3.314744 33.356114 0.322746
2011-02-21 08:16:57 51°16.236 2°53.983 5.992 3.314744 33.356114 0.322746
2011-02-21 08:17:02 51°16.236 2°53.981 5.9953 3.314744 33.356114 0.322746
2011-02-21 08:17:07 51°16.235 2°53.978 5.9956 3.314639 33.354092 0.287922
2011-02-21 08:17:11 51°16.235 2°53.976 5.9932 3.313901 33.345012 0.392394
2011-02-21 08:17:17 51°16.235 2°53.973 5.9945 3.314323 33.350563 0.462042
2011-02-21 08:17:22 51°16.235 2°53.97 5.9943 3.314323 33.350563 0.462042
2011-02-21 08:17:27 51°16.235 2°53.968 5.9937 3.313796 33.344681 0.287922
2011-02-21 08:17:32 51°16.235 2°53.965 5.9914 3.315482 33.36604 0.287922
2011-02-21 08:17:37 51°16.234 2°53.962 5.9926 3.31485 33.356444 0.35757
2011-02-21 08:17:42 51°16.234 2°53.96 5.9937 3.315166 33.359974 0.287922
2011-02-21 08:17:47 51°16.234 2°53.957 5.9932 3.314744 33.357805 0.287922
2011-02-21 08:17:51 51°16.234 2°53.955 5.9937 3.314744 33.357805 0.287922
2011-02-21 08:17:57 51°16.234 2°53.951 5.9933 3.314744 33.356114 0.253098
2011-02-21 08:18:02 51°16.234 2°53.948 5.9928 3.315588 33.368909 0.35757
2011-02-21 08:18:07 51°16.233 2°53.946 5.9922 3.315693 33.365856 0.253098
2011-02-21 08:18:12 51°16.233 2°53.943 5.9928 3.314744 33.355268 0.287922
2011-02-21 08:18:17 51°16.234 2°53.94 5.9909 3.314639 33.355783 0.218274
2011-02-21 08:18:22 51°16.234 2°53.937 5.9896 3.314744 33.356114 0.427218
2011-02-21 08:18:27 51°16.234 2°53.935 5.9916 3.314744 33.356114 0.427218
2011-02-21 08:18:32 51°16.235 2°53.933 5.9904 3.314955 33.360158 0.287922
2011-02-21 08:18:37 51°16.236 2°53.931 5.9904 3.314744 33.356959 0.287922
2011-02-21 08:18:42 51°16.236 2°53.929 5.9932 3.314639 33.354937 0.35757
2011-02-21 08:18:47 51°16.237 2°53.927 6.0009 3.31485 33.358981 0.253098
2011-02-21 08:18:52 51°16.237 2°53.925 5.9946 3.315061 33.36218 0.392394
2011-02-21 08:18:57 51°16.238 2°53.923 5.9966 3.315061 33.36218 0.392394
2011-02-21 08:19:02 51°16.239 2°53.922 5.9951 3.314744 33.359496 0.253098
2011-02-21 08:19:07 51°16.24 2°53.92 5.9939 3.314217 33.352768 0.253098
2011-02-21 08:19:12 51°16.242 2°53.919 5.992 3.31485 33.362364 0.253098
2011-02-21 08:19:17 51°16.243 2°53.918 5.9916 3.314323 33.356481 0.322746
2011-02-21 08:19:22 51°16.244 2°53.917 5.9905 3.315798 33.370416 0.322746
2011-02-21 08:19:27 51°16.246 2°53.916 5.9931 3.315798 33.370416 0.322746
2011-02-21 08:19:32 51°16.247 2°53.915 5.9916 3.315482 33.36604 0.287922
2011-02-21 08:19:37 51°16.248 2°53.914 5.9949 3.315693 33.367547 0.218274
2011-02-21 08:19:42 51°16.25 2°53.914 5.9938 3.315693 33.367547 0.287922
2011-02-21 08:19:47 51°16.252 2°53.913 5.993 3.316009 33.371077 0.287922
2011-02-21 08:19:52 51°16.254 2°53.912 5.9916 3.316009 33.371077 0.287922
2011-02-21 08:19:57 51°16.255 2°53.912 5.991 3.315693 33.367547 0.253098
2011-02-21 08:20:02 51°16.257 2°53.911 5.9896 3.315588 33.368063 0.287922
2011-02-21 08:20:07 51°16.259 2°53.91 5.9905 3.315693 33.370931 0.218274
2011-02-21 08:20:12 51°16.261 2°53.911 5.9895 3.315904 33.372438 0.253098
2011-02-21 08:20:17 51°16.263 2°53.91 5.9921 3.315904 33.372438 0.287922
2011-02-21 08:20:22 51°16.265 2°53.91 5.9904 3.315588 33.368063 0.287922
2011-02-21 08:20:27 51°16.267 2°53.911 5.9918 3.315588 33.368063 0.287922
2011-02-21 08:20:31 51°16.269 2°53.911 5.9893 3.315904 33.370746 0.322746
2011-02-21 08:20:37 51°16.272 2°53.91 5.9911 3.315798 33.372954 0.322746
2011-02-21 08:20:42 51°16.275 2°53.91 5.9908 3.315904 33.373285 0.427218
2011-02-21 08:20:47 51°16.277 2°53.91 5.9923 3.315693 33.374316 0.287922
2011-02-21 08:20:52 51°16.281 2°53.91 5.9926 3.316115 33.379023 0.322746
2011-02-21 08:20:56 51°16.283 2°53.909 5.9929 3.316115 33.379023 0.322746
2011-02-21 08:21:02 51°16.288 2°53.908 5.9942 3.315482 33.371963 0.287922
2011-02-21 08:21:07 51°16.292 2°53.907 5.9943 3.315904 33.376669 0.35757
2011-02-21 08:21:11 51°16.295 2°53.905 5.9962 3.316009 33.377 0.287922
2011-02-21 08:21:17 51°16.3 2°53.901 5.9964 3.31622 33.377661 0.392394
2011-02-21 08:21:22 51°16.305 2°53.898 5.9967 3.31622 33.377661 0.392394
2011-02-21 08:21:27 51°16.31 2°53.894 5.9961 3.316009 33.376154 0.322746
2011-02-21 08:21:32 51°16.315 2°53.888 5.9969 3.316115 33.378177 0.35757
2011-02-21 08:21:37 51°16.32 2°53.882 5.9986 3.31622 33.378507 0.253098
2011-02-21 08:21:42 51°16.325 2°53.875 5.9966 3.316642 33.382368 0.322746
2011-02-21 08:21:47 51°16.329 2°53.866 5.9945 3.316325 33.378837 0.253098
2011-02-21 08:21:52 51°16.335 2°53.857 5.9916 3.316642 33.382368 0.427218
2011-02-21 08:21:57 51°16.34 2°53.846 5.9901 3.316642 33.382368 0.427218
2011-02-21 08:22:01 51°16.345 2°53.837 5.9893 3.316642 33.383214 0.218274
2011-02-21 08:22:07 51°16.354 2°53.822 5.9894 3.316536 33.382037 0.287922
2011-02-21 08:22:11 51°16.36 2°53.811 5.9877 3.316431 33.379168 0.35757
2011-02-21 08:22:17 51°16.37 2°53.793 5.989 3.316536 33.382037 0.218274
2011-02-21 08:22:22 51°16.379 2°53.778 5.9864 3.31485 33.362364 0.287922
2011-02-21 08:22:27 51°16.388 2°53.761 5.9894 3.31485 33.362364 0.287922
2011-02-21 08:22:32 51°16.397 2°53.744 5.9897 3.314744 33.361188 0.253098
2011-02-21 08:22:37 51°16.407 2°53.726 5.9907 3.315061 33.368102 0.287922
2011-02-21 08:22:42 51°16.418 2°53.707 5.9918 3.315061 33.368102 0.322746
2011-02-21 08:22:47 51°16.428 2°53.688 5.9906 3.314955 33.367771 0.427218
2011-02-21 08:22:52 51°16.439 2°53.668 5.9893 3.315061 33.369794 0.253098
2011-02-21 08:22:57 51°16.45 2°53.647 5.991 3.315061 33.369794 0.253098
2011-02-21 08:23:02 51°16.461 2°53.626 5.9891 3.315482 33.37704 0.287922
2011-02-21 08:23:07 51°16.473 2°53.605 5.9901 3.315271 33.37384 0.322746
2011-02-21 08:23:12 51°16.485 2°53.584 5.9909 3.315588 33.377371 0.392394
2011-02-21 08:23:17 51°16.497 2°53.562 5.9898 3.31622 33.384432 0.322746
2011-02-21 08:23:22 51°16.509 2°53.541 5.9883 3.31622 33.384432 0.322746
2011-02-21 08:23:27 51°16.521 2°53.52 5.9894 3.316431 33.385093 0.287922
2011-02-21 08:23:32 51°16.534 2°53.498 5.9924 3.316642 33.388293 0.253098
2011-02-21 08:23:37 51°16.546 2°53.477 5.992 3.316852 33.3898 0.253098
2011-02-21 08:23:42 51°16.559 2°53.455 5.9946 3.316747 33.388624 0.496866
2011-02-21 08:23:47 51°16.572 2°53.433 5.997 3.316958 33.389284 0.322746
2011-02-21 08:23:52 51°16.584 2°53.412 5.997 3.31759 33.398039 0.322746
2011-02-21 08:23:57 51°16.597 2°53.39 5.9988 3.31759 33.398039 0.322746
2011-02-21 08:24:02 51°16.61 2°53.369 6.002 3.318012 33.402747 0.322746
2011-02-21 08:24:07 51°16.622 2°53.347 6.0009 3.317801 33.400393 0.218274
2011-02-21 08:24:12 51°16.635 2°53.326 6.0024 3.318012 33.402747 0.253098
2011-02-21 08:24:17 51°16.648 2°53.304 6.0035 3.319277 33.416023 0.35757
2011-02-21 08:24:22 51°16.661 2°53.283 6.0053 3.318328 33.404583 0.322746
2011-02-21 08:24:27 51°16.674 2°53.262 6.0054 3.318328 33.404583 0.322746
2011-02-21 08:24:32 51°16.687 2°53.241 6.0062 3.31896 33.408256 0.322746
2011-02-21 08:24:37 51°16.7 2°53.22 6.0085 3.319804 33.417671 0.322746
2011-02-21 08:24:42 51°16.713 2°53.2 6.0087 3.319593 33.413623 0.253098
2011-02-21 08:24:47 51°16.727 2°53.18 6.0074 3.319593 33.412776 0.287922
2011-02-21 08:24:52 51°16.74 2°53.16 6.0074 3.319909 33.414612 0.253098
2011-02-21 08:24:57 51°16.754 2°53.142 6.0077 3.319909 33.414612 0.253098
2011-02-21 08:25:02 51°16.768 2°53.123 6.0063 3.319804 33.412588 0.35757
2011-02-21 08:25:07 51°16.782 2°53.105 6.0067 3.32012 33.413577 0.392394
2011-02-21 08:25:11 51°16.794 2°53.09 6.0044 3.320436 33.415413 0.35757
2011-02-21 08:25:17 51°16.811 2°53.069 6.0041 3.320752 33.418943 0.253098
2011-02-21 08:25:22 51°16.824 2°53.05 6.005 3.320752 33.418943 0.253098
2011-02-21 08:25:27 51°16.838 2°53.032 6.0058 3.321279 33.423132 0.35757
2011-02-21 08:25:32 51°16.85 2°53.014 6.0046 3.321068 33.420779 0.253098
2011-02-21 08:25:37 51°16.863 2°52.996 6.0055 3.321701 33.426144 0.253098
2011-02-21 08:25:42 51°16.875 2°52.978 6.0083 3.321806 33.429015 0.287922
2011-02-21 08:25:47 51°16.886 2°52.958 6.0096 3.322228 33.433721 0.218274
2011-02-21 08:25:52 51°16.897 2°52.939 6.0095 3.322333 33.435745 0.392394
2011-02-21 08:25:57 51°16.908 2°52.919 6.0099 3.322333 33.435745 0.392394
2011-02-21 08:26:02 51°16.918 2°52.899 6.0115 3.322333 33.43744 0.253098
2011-02-21 08:26:07 51°16.929 2°52.878 6.0114 3.322544 33.440642 0.218274
2011-02-21 08:26:12 51°16.941 2°52.859 6.0138 3.322966 33.447044 0.287922
2011-02-21 08:26:17 51°16.953 2°52.839 6.0147 3.323176 33.44855 0.322746
2011-02-21 08:26:22 51°16.965 2°52.82 6.018 3.323176 33.44855 0.322746
2011-02-21 08:26:27 51°16.978 2°52.802 6.0176 3.323703 33.452738 0.253098
2011-02-21 08:26:32 51°16.992 2°52.785 6.0203 3.323492 33.449537 0.18345
2011-02-21 08:26:37 51°17.007 2°52.771 6.0208 3.323598 33.450714 0.253098